Wetterdaten: Mittwoch, 02.08.2023
Datum Zeit Temp. Aussen Temp. o. S. Temp +5cm Feuchte Auss Luftdruck Regen Sonnenschein Regendauer Solar Windben Empfang
02.08.2023 00:00 16,9 C 15,6 C 12,8 C 87 % 1003,8 hPa 0,0 l/m 0 min 0 min 0 W/m 0,0 km/h (0 Bft) 97,87 %
02.08.2023 00:02 16,8 C 15,6 C 12,8 C 87 % 1003,7 hPa 0,0 l/m 0 min 0 min 0 W/m 0,0 km/h (0 Bft) 97,62 %
02.08.2023 00:04 16,8 C 15,6 C 12,8 C 87 % 1003,7 hPa 0,0 l/m 0 min 0 min 0 W/m 0,0 km/h (0 Bft) 95,83 %
02.08.2023 00:08 16,8 C 15,6 C 12,8 C 87 % 1003,7 hPa 0,0 l/m 0 min 0 min 0 W/m 0,0 km/h (0 Bft) 97,89 %
02.08.2023 00:10 16,8 C 15,6 C 12,8 C 87 % 1003,6 hPa 0,0 l/m 0 min 0 min 0 W/m 0,0 km/h (0 Bft) 97,87 %
02.08.2023 00:12 16,8 C 15,6 C 12,8 C 87 % 1003,6 hPa 0,0 l/m 0 min 0 min 0 W/m 0,0 km/h (0 Bft) 97,87 %
02.08.2023 00:14 16,8 C 15,6 C 12,8 C 87 % 1003,6 hPa 0,0 l/m 0 min 0 min 0 W/m 0,0 km/h (0 Bft) 97,83 %
02.08.2023 00:16 16,8 C 15,6 C 12,8 C 87 % 1003,6 hPa 0,0 l/m 0 min 0 min 0 W/m 0,0 km/h (0 Bft) 97,87 %
02.08.2023 00:18 16,8 C 15,6 C 12,8 C 88 % 1003,6 hPa 0,0 l/m 0 min 0 min 0 W/m 0,0 km/h (0 Bft) 95,74 %
02.08.2023 00:20 16,8 C 15,6 C 12,8 C 88 % 1003,6 hPa 0,0 l/m 0 min 0 min 0 W/m 0,0 km/h (0 Bft) 95,74 %
02.08.2023 00:22 16,8 C 15,6 C 12,8 C 88 % 1003,5 hPa 0,0 l/m 0 min 0 min 0 W/m 0,0 km/h (0 Bft) 95,74 %
02.08.2023 00:24 16,7 C 15,6 C 12,8 C 88 % 1003,5 hPa 0,0 l/m 0 min 0 min 0 W/m 0,0 km/h (0 Bft) 97,87 %
02.08.2023 00:26 16,7 C 15,6 C 12,8 C 88 % 1003,5 hPa 0,0 l/m 0 min 0 min 0 W/m 0,0 km/h (0 Bft) 95,74 %
02.08.2023 00:28 16,7 C 15,6 C 12,8 C 88 % 1003,5 hPa 0,0 l/m 0 min 0 min 0 W/m 6,4 km/h (2 Bft) 91,30 %
02.08.2023 00:30 16,7 C 15,6 C 12,8 C 88 % 1003,5 hPa 0,0 l/m 0 min 0 min 0 W/m 0,0 km/h (0 Bft) 93,62 %
02.08.2023 00:32 16,7 C 15,6 C 12,8 C 88 % 1003,5 hPa 0,0 l/m 0 min 0 min 0 W/m 0,0 km/h (0 Bft) 91,49 %
02.08.2023 00:34 16,7 C 15,6 C 12,8 C 88 % 1003,4 hPa 0,0 l/m 0 min 0 min 0 W/m 3,2 km/h (1 Bft) 93,62 %
02.08.2023 00:36 16,7 C 15,6 C 12,8 C 88 % 1003,4 hPa 0,0 l/m 0 min 0 min 0 W/m 0,0 km/h (0 Bft) 93,62 %
02.08.2023 00:38 16,7 C 15,6 C 12,8 C 88 % 1003,4 hPa 0,0 l/m 0 min 0 min 0 W/m 0,0 km/h (0 Bft) 91,49 %
02.08.2023 00:40 16,7 C 15,6 C 12,8 C 88 % 1003,5 hPa 0,0 l/m 0 min 0 min 0 W/m 0,0 km/h (0 Bft) 89,36 %
02.08.2023 00:42 16,6 C 15,6 C 12,8 C 89 % 1003,5 hPa 0,0 l/m 0 min 0 min 0 W/m 0,0 km/h (0 Bft) 93,48 %
02.08.2023 00:44 16,6 C 15,6 C 12,8 C 89 % 1003,5 hPa 0,0 l/m 0 min 0 min 0 W/m 0,0 km/h (0 Bft) 93,62 %
02.08.2023 00:46 16,6 C 15,6 C 12,8 C 89 % 1003,5 hPa 0,0 l/m 0 min 0 min 0 W/m 0,0 km/h (0 Bft) 95,74 %
02.08.2023 00:48 16,6 C 15,6 C 12,8 C 89 % 1003,5 hPa 0,0 l/m 0 min 0 min 0 W/m 12,9 km/h (3 Bft) 97,87 %
02.08.2023 00:50 16,6 C 15,6 C 12,8 C 89 % 1003,5 hPa 0,0 l/m 0 min 0 min 0 W/m 6,4 km/h (2 Bft) 100,00 %
02.08.2023 00:52 16,6 C 15,6 C 12,8 C 89 % 1003,5 hPa 0,0 l/m 0 min 0 min 0 W/m 6,4 km/h (2 Bft) 97,87 %
02.08.2023 00:54 16,6 C 15,6 C 12,8 C 89 % 1003,5 hPa 0,0 l/m 0 min 0 min 0 W/m 3,2 km/h (1 Bft) 97,83 %
02.08.2023 00:56 16,6 C 15,6 C 12,8 C 89 % 1003,4 hPa 0,0 l/m 0 min 0 min 0 W/m 12,9 km/h (3 Bft) 95,74 %
02.08.2023 00:58 16,6 C 15,6 C 12,8 C 89 % 1003,4 hPa 0,0 l/m 0 min 0 min 0 W/m 6,4 km/h (2 Bft) 97,87 %
02.08.2023 01:00 16,6 C 15,6 C 12,8 C 89 % 1003,4 hPa 0,0 l/m 0 min 0 min 0 W/m 3,2 km/h (1 Bft) 95,74 %
02.08.2023 01:02 16,6 C 15,6 C 12,8 C 89 % 1003,4 hPa 0,0 l/m 0 min 0 min 0 W/m 6,4 km/h (2 Bft) 95,74 %
02.08.2023 01:04 16,6 C 15,6 C 12,8 C 89 % 1003,4 hPa 0,0 l/m 0 min 0 min 0 W/m 6,4 km/h (2 Bft) 97,92 %
02.08.2023 01:06 16,6 C 15,6 C 12,2 C 89 % 1003,3 hPa 0,0 l/m 0 min 0 min 0 W/m 3,2 km/h (1 Bft) 97,87 %
02.08.2023 01:08 16,6 C 15,6 C 12,2 C 89 % 1003,4 hPa 0,0 l/m 0 min 0 min 0 W/m 9,7 km/h (2 Bft) 97,87 %
02.08.2023 01:10 16,6 C 15,6 C 12,2 C 89 % 1003,4 hPa 0,0 l/m 0 min 0 min 0 W/m 6,4 km/h (2 Bft) 97,83 %
02.08.2023 01:12 16,6 C 15,6 C 12,2 C 89 % 1003,4 hPa 0,0 l/m 0 min 0 min 0 W/m 6,4 km/h (2 Bft) 93,62 %
02.08.2023 01:14 16,5 C 15,6 C 12,2 C 89 % 1003,4 hPa 0,0 l/m 0 min 0 min 0 W/m 9,7 km/h (2 Bft) 97,87 %
02.08.2023 01:16 16,5 C 15,6 C 12,2 C 89 % 1003,5 hPa 0,0 l/m 0 min 0 min 0 W/m 9,7 km/h (2 Bft) 97,87 %
02.08.2023 01:18 16,5 C 15,6 C 12,2 C 89 % 1003,4 hPa 0,0 l/m 0 min 0 min 0 W/m 19,3 km/h (3 Bft) 100,00 %
02.08.2023 01:20 16,5 C 15,6 C 12,2 C 89 % 1003,4 hPa 0,0 l/m 0 min 0 min 0 W/m 9,7 km/h (2 Bft) 100,00 %
02.08.2023 01:22 16,4 C 15,6 C 12,2 C 89 % 1003,4 hPa 0,0 l/m 0 min 0 min 0 W/m 9,7 km/h (2 Bft) 100,00 %
02.08.2023 01:24 16,4 C 15,6 C 12,2 C 89 % 1003,3 hPa 0,0 l/m 0 min 0 min 0 W/m 9,7 km/h (2 Bft) 95,65 %
02.08.2023 01:26 16,4 C 15,6 C 12,2 C 89 % 1003,3 hPa 0,0 l/m 0 min 0 min 0 W/m 16,1 km/h (3 Bft) 100,00 %
02.08.2023 01:28 16,4 C 15,6 C 12,2 C 89 % 1003,3 hPa 0,0 l/m 0 min 0 min 0 W/m 16,1 km/h (3 Bft) 100,00 %
02.08.2023 01:30 16,4 C 15,6 C 12,2 C 89 % 1003,1 hPa 0,0 l/m 0 min 0 min 0 W/m 12,9 km/h (3 Bft) 100,00 %
02.08.2023 01:32 16,4 C 15,6 C 12,2 C 89 % 1003,1 hPa 0,0 l/m 0 min 0 min 0 W/m 19,3 km/h (3 Bft) 95,74 %
02.08.2023 01:34 16,3 C 15,6 C 12,2 C 89 % 1003,1 hPa 0,0 l/m 0 min 0 min 0 W/m 16,1 km/h (3 Bft) 97,87 %
02.08.2023 01:36 16,3 C 15,6 C 12,2 C 89 % 1003,0 hPa 0,0 l/m 0 min 0 min 0 W/m 19,3 km/h (3 Bft) 100,00 %
02.08.2023 01:38 16,3 C 15,6 C 12,2 C 89 % 1003,0 hPa 0,0 l/m 0 min 0 min 0 W/m 9,7 km/h (2 Bft) 100,00 %
02.08.2023 01:40 16,3 C 15,6 C 12,2 C 89 % 1003,0 hPa 0,0 l/m 0 min 0 min 0 W/m 6,4 km/h (2 Bft) 97,87 %
02.08.2023 01:42 16,3 C 15,6 C 12,2 C 89 % 1002,9 hPa 0,0 l/m 0 min 0 min 0 W/m 16,1 km/h (3 Bft) 97,87 %
02.08.2023 01:44 16,3 C 15,6 C 12,2 C 89 % 1003,0 hPa 0,0 l/m 0 min 0 min 0 W/m 16,1 km/h (3 Bft) 100,00 %
02.08.2023 01:46 16,3 C 15,6 C 12,2 C 89 % 1002,9 hPa 0,0 l/m 0 min 0 min 0 W/m 16,1 km/h (3 Bft) 97,87 %
02.08.2023 01:48 16,3 C 15,6 C 12,2 C 89 % 1002,9 hPa 0,0 l/m 0 min 0 min 0 W/m 12,9 km/h (3 Bft) 100,00 %
02.08.2023 01:50 16,3 C 15,6 C 12,2 C 89 % 1002,9 hPa 0,0 l/m 0 min 0 min 0 W/m 6,4 km/h (2 Bft) 100,00 %
02.08.2023 01:52 16,3 C 15,6 C 12,2 C 89 % 1002,9 hPa 0,0 l/m 0 min 0 min 0 W/m 16,1 km/h (3 Bft) 100,00 %
02.08.2023 01:54 16,3 C 15,6 C 12,2 C 89 % 1002,9 hPa 0,0 l/m 0 min 0 min 0 W/m 16,1 km/h (3 Bft) 100,00 %
02.08.2023 01:56 16,2 C 15,6 C 12,2 C 89 % 1002,9 hPa 0,0 l/m 0 min 0 min 0 W/m 9,7 km/h (2 Bft) 97,87 %
02.08.2023 01:58 16,2 C 15,6 C 12,2 C 89 % 1002,8 hPa 0,0 l/m 0 min 0 min 0 W/m 9,7 km/h (2 Bft) 100,00 %
02.08.2023 02:00 16,2 C 15,0 C 12,2 C 89 % 1002,7 hPa 0,0 l/m 0 min 0 min 0 W/m 16,1 km/h (3 Bft) 100,00 %
02.08.2023 02:02 16,2 C 15,0 C 12,2 C 89 % 1002,7 hPa 0,0 l/m 0 min 0 min 0 W/m 19,3 km/h (3 Bft) 100,00 %
02.08.2023 02:04 16,1 C 15,0 C 12,2 C 89 % 1002,7 hPa 0,0 l/m 0 min 0 min 0 W/m 6,4 km/h (2 Bft) 100,00 %
02.08.2023 02:06 16,1 C 15,0 C 12,2 C 89 % 1002,7 hPa 0,0 l/m 0 min 0 min 0 W/m 12,9 km/h (3 Bft) 93,75 %
02.08.2023 02:08 16,1 C 15,0 C 12,2 C 89 % 1002,7 hPa 0,0 l/m 0 min 0 min 0 W/m 16,1 km/h (3 Bft) 97,14 %
02.08.2023 02:10 16,1 C 15,0 C 12,2 C 89 % 1002,7 hPa 0,0 l/m 0 min 0 min 0 W/m 12,9 km/h (3 Bft) 97,87 %
02.08.2023 02:12 16,1 C 15,0 C 11,7 C 89 % 1002,6 hPa 0,0 l/m 0 min 0 min 0 W/m 12,9 km/h (3 Bft) 97,87 %
02.08.2023 02:14 16,1 C 15,0 C 11,7 C 90 % 1002,6 hPa 0,0 l/m 0 min 0 min 0 W/m 9,7 km/h (2 Bft) 97,87 %
02.08.2023 02:16 16,1 C 15,0 C 11,7 C 90 % 1002,6 hPa 0,0 l/m 0 min 0 min 0 W/m 12,9 km/h (3 Bft) 97,87 %
02.08.2023 02:18 16,1 C 15,0 C 11,7 C 90 % 1002,6 hPa 0,0 l/m 0 min 0 min 0 W/m 12,9 km/h (3 Bft) 97,87 %
02.08.2023 02:20 16,0 C 15,0 C 11,7 C 90 % 1002,6 hPa 0,0 l/m 0 min 0 min 0 W/m 12,9 km/h (3 Bft) 97,83 %
02.08.2023 02:22 15,9 C 15,0 C 11,7 C 90 % 1002,6 hPa 0,0 l/m 0 min 0 min 0 W/m 12,9 km/h (3 Bft) 97,87 %
02.08.2023 02:24 15,9 C 15,0 C 11,7 C 90 % 1002,5 hPa 0,0 l/m 0 min 0 min 0 W/m 16,1 km/h (3 Bft) 97,87 %
02.08.2023 02:26 15,9 C 15,0 C 11,7 C 90 % 1002,5 hPa 0,0 l/m 0 min 0 min 0 W/m 9,7 km/h (2 Bft) 97,87 %
02.08.2023 02:28 15,9 C 15,0 C 11,7 C 90 % 1002,5 hPa 0,0 l/m 0 min 0 min 0 W/m 19,3 km/h (3 Bft) 95,74 %
02.08.2023 02:30 15,8 C 15,0 C 11,7 C 90 % 1002,5 hPa 0,0 l/m 0 min 0 min 0 W/m 19,3 km/h (3 Bft) 97,87 %
02.08.2023 02:32 15,8 C 15,0 C 11,7 C 90 % 1002,5 hPa 0,0 l/m 0 min 0 min 0 W/m 12,9 km/h (3 Bft) 95,74 %
02.08.2023 02:34 15,8 C 15,0 C 11,7 C 90 % 1002,5 hPa 0,0 l/m 0 min 0 min 0 W/m 12,9 km/h (3 Bft) 97,87 %
02.08.2023 02:36 15,8 C 15,0 C 11,7 C 90 % 1002,5 hPa 0,0 l/m 0 min 0 min 0 W/m 16,1 km/h (3 Bft) 95,65 %
02.08.2023 02:38 15,8 C 15,0 C 11,7 C 90 % 1002,5 hPa 0,0 l/m 0 min 0 min 0 W/m 12,9 km/h (3 Bft) 97,87 %
02.08.2023 02:40 15,7 C 15,0 C 11,7 C 90 % 1002,4 hPa 0,0 l/m 0 min 0 min 0 W/m 19,3 km/h (3 Bft) 100,00 %
02.08.2023 02:42 15,7 C 15,0 C 11,7 C 90 % 1002,5 hPa 0,0 l/m 0 min 0 min 0 W/m 22,5 km/h (4 Bft) 100,00 %
02.08.2023 02:44 15,7 C 15,0 C 11,7 C 90 % 1002,5 hPa 0,0 l/m 0 min 0 min 0 W/m 9,7 km/h (2 Bft) 100,00 %
02.08.2023 02:46 15,7 C 14,4 C 11,7 C 90 % 1002,5 hPa 0,0 l/m 0 min 0 min 0 W/m 12,9 km/h (3 Bft) 95,74 %
02.08.2023 02:48 15,7 C 14,4 C 11,7 C 90 % 1002,4 hPa 0,0 l/m 0 min 0 min 0 W/m 12,9 km/h (3 Bft) 95,65 %
02.08.2023 02:50 15,7 C 14,4 C 11,7 C 90 % 1002,4 hPa 0,0 l/m 0 min 0 min 0 W/m 16,1 km/h (3 Bft) 97,87 %
02.08.2023 02:52 15,6 C 14,4 C 11,7 C 91 % 1002,4 hPa 0,0 l/m 0 min 0 min 0 W/m 16,1 km/h (3 Bft) 97,87 %
02.08.2023 02:54 15,6 C 14,4 C 11,7 C 91 % 1002,4 hPa 0,0 l/m 0 min 0 min 0 W/m 12,9 km/h (3 Bft) 97,87 %
02.08.2023 02:56 15,6 C 14,4 C 11,7 C 91 % 1002,4 hPa 0,0 l/m 0 min 0 min 0 W/m 16,1 km/h (3 Bft) 97,87 %
02.08.2023 02:58 15,6 C 14,4 C 11,7 C 91 % 1002,3 hPa 0,0 l/m 0 min 0 min 0 W/m 12,9 km/h (3 Bft) 97,87 %
02.08.2023 03:00 15,6 C 14,4 C 11,7 C 91 % 1002,3 hPa 0,0 l/m 0 min 0 min 0 W/m 19,3 km/h (3 Bft) 95,74 %
02.08.2023 03:02 15,6 C 14,4 C 11,7 C 91 % 1002,3 hPa 0,0 l/m 0 min 0 min 0 W/m 9,7 km/h (2 Bft) 97,83 %
02.08.2023 03:04 15,6 C 14,4 C 11,7 C 91 % 1002,4 hPa 0,0 l/m 0 min 0 min 0 W/m 16,1 km/h (3 Bft) 95,74 %
02.08.2023 03:06 15,6 C 14,4 C 11,7 C 91 % 1002,4 hPa 0,0 l/m 0 min 0 min 0 W/m 16,1 km/h (3 Bft) 98,31 %
02.08.2023 03:08 15,6 C 14,4 C 11,7 C 91 % 1002,3 hPa 0,0 l/m 0 min 0 min 0 W/m 12,9 km/h (3 Bft) 97,14 %
02.08.2023 03:10 15,5 C 14,4 C 11,7 C 91 % 1002,2 hPa 0,0 l/m 0 min 0 min 0 W/m 12,9 km/h (3 Bft) 97,87 %
02.08.2023 03:12 15,5 C 14,4 C 11,7 C 91 % 1002,2 hPa 0,0 l/m 0 min 0 min 0 W/m 16,1 km/h (3 Bft) 95,74 %
02.08.2023 03:14 15,5 C 14,4 C 11,7 C 91 % 1002,2 hPa 0,0 l/m 0 min 0 min 0 W/m 6,4 km/h (2 Bft) 100,00 %
02.08.2023 03:16 15,5 C 14,4 C 11,7 C 91 % 1002,2 hPa 0,0 l/m 0 min 0 min 0 W/m 16,1 km/h (3 Bft) 95,74 %
02.08.2023 03:18 15,5 C 15,0 C 11,7 C 91 % 1002,3 hPa 0,0 l/m 0 min 0 min 0 W/m 12,9 km/h (3 Bft) 97,87 %
02.08.2023 03:20 15,6 C 15,0 C 11,7 C 91 % 1002,3 hPa 0,0 l/m 0 min 0 min 0 W/m 6,4 km/h (2 Bft) 93,62 %
02.08.2023 03:22 15,6 C 15,0 C 11,7 C 91 % 1002,2 hPa 0,0 l/m 0 min 0 min 0 W/m 6,4 km/h (2 Bft) 95,74 %
02.08.2023 03:24 15,6 C 15,0 C 11,7 C 91 % 1002,1 hPa 0,0 l/m 0 min 0 min 0 W/m 12,9 km/h (3 Bft) 97,87 %
02.08.2023 03:26 15,6 C 15,0 C 11,7 C 91 % 1001,9 hPa 0,0 l/m 0 min 0 min 0 W/m 19,3 km/h (3 Bft) 95,74 %
02.08.2023 03:28 15,6 C 15,0 C 11,7 C 91 % 1001,9 hPa 0,0 l/m 0 min 0 min 0 W/m 9,7 km/h (2 Bft) 95,65 %
02.08.2023 03:30 15,6 C 15,0 C 11,7 C 91 % 1001,8 hPa 0,0 l/m 0 min 0 min 0 W/m 19,3 km/h (3 Bft) 97,87 %
02.08.2023 03:32 15,6 C 15,0 C 11,7 C 91 % 1001,8 hPa 0,0 l/m 0 min 0 min 0 W/m 6,4 km/h (2 Bft) 97,87 %
02.08.2023 03:34 15,6 C 15,0 C 11,7 C 91 % 1001,8 hPa 0,0 l/m 0 min 0 min 0 W/m 3,2 km/h (1 Bft) 95,74 %
02.08.2023 03:36 15,6 C 15,0 C 11,7 C 91 % 1001,9 hPa 0,0 l/m 0 min 0 min 0 W/m 3,2 km/h (1 Bft) 97,87 %
02.08.2023 03:38 15,6 C 15,0 C 11,7 C 91 % 1001,9 hPa 0,0 l/m 0 min 0 min 0 W/m 9,7 km/h (2 Bft) 97,87 %
02.08.2023 03:40 15,6 C 15,0 C 11,7 C 91 % 1001,9 hPa 0,0 l/m 0 min 0 min 0 W/m 9,7 km/h (2 Bft) 97,83 %
02.08.2023 03:42 15,6 C 15,0 C 11,7 C 91 % 1001,9 hPa 0,0 l/m 0 min 0 min 0 W/m 6,4 km/h (2 Bft) 97,87 %
02.08.2023 03:44 15,6 C 15,0 C 11,7 C 91 % 1001,8 hPa 0,0 l/m 0 min 0 min 0 W/m 3,2 km/h (1 Bft) 97,87 %
02.08.2023 03:46 15,6 C 15,0 C 11,7 C 91 % 1001,8 hPa 0,0 l/m 0 min 0 min 0 W/m 6,4 km/h (2 Bft) 95,74 %
02.08.2023 03:48 15,6 C 15,0 C 11,7 C 91 % 1001,8 hPa 0,0 l/m 0 min 0 min 0 W/m 3,2 km/h (1 Bft) 97,87 %
02.08.2023 03:50 15,6 C 15,0 C 11,7 C 92 % 1001,8 hPa 0,0 l/m 0 min 0 min 0 W/m 6,4 km/h (2 Bft) 97,87 %
02.08.2023 03:52 15,6 C 15,0 C 11,7 C 92 % 1001,7 hPa 0,0 l/m 0 min 0 min 0 W/m 3,2 km/h (1 Bft) 97,87 %
02.08.2023 03:54 15,6 C 15,0 C 11,7 C 92 % 1001,7 hPa 0,0 l/m 0 min 0 min 0 W/m 9,7 km/h (2 Bft) 97,83 %
02.08.2023 03:56 15,7 C 15,0 C 11,7 C 92 % 1001,6 hPa 0,0 l/m 0 min 0 min 0 W/m 16,1 km/h (3 Bft) 93,62 %
02.08.2023 03:58 15,7 C 15,0 C 11,7 C 92 % 1001,7 hPa 0,0 l/m 0 min 0 min 0 W/m 6,4 km/h (2 Bft) 95,74 %
02.08.2023 04:00 15,7 C 15,0 C 11,7 C 92 % 1001,6 hPa 0,0 l/m 0 min 0 min 0 W/m 12,9 km/h (3 Bft) 95,74 %
02.08.2023 04:02 15,7 C 15,0 C 11,7 C 92 % 1001,6 hPa 0,0 l/m 0 min 0 min 0 W/m 9,7 km/h (2 Bft) 90,00 %
02.08.2023 04:04 15,7 C 15,0 C 11,7 C 92 % 1001,6 hPa 0,0 l/m 0 min 0 min 0 W/m 9,7 km/h (2 Bft) 97,56 %
02.08.2023 04:06 15,7 C 15,0 C 11,7 C 92 % 1001,5 hPa 0,0 l/m 0 min 0 min 0 W/m 6,4 km/h (2 Bft) 93,85 %
02.08.2023 04:08 15,7 C 15,0 C 11,7 C 92 % 1001,4 hPa 0,0 l/m 0 min 0 min 0 W/m 6,4 km/h (2 Bft) 97,14 %
02.08.2023 04:10 15,7 C 15,0 C 11,7 C 92 % 1001,4 hPa 0,0 l/m 0 min 0 min 0 W/m 12,9 km/h (3 Bft) 93,62 %
02.08.2023 04:12 15,7 C 15,0 C 11,7 C 92 % 1001,4 hPa 0,0 l/m 0 min 0 min 0 W/m 3,2 km/h (1 Bft) 95,74 %
02.08.2023 04:14 15,7 C 15,0 C 11,7 C 92 % 1001,4 hPa 0,0 l/m 0 min 0 min 0 W/m 3,2 km/h (1 Bft) 95,74 %
02.08.2023 04:16 15,7 C 15,0 C 11,7 C 92 % 1001,4 hPa 0,0 l/m 0 min 0 min 0 W/m 3,2 km/h (1 Bft) 97,87 %
02.08.2023 04:18 15,7 C 15,0 C 11,7 C 92 % 1001,3 hPa 0,0 l/m 0 min 0 min 0 W/m 6,4 km/h (2 Bft) 93,62 %
02.08.2023 04:20 15,7 C 15,0 C 11,7 C 92 % 1001,3 hPa 0,0 l/m 0 min 0 min 0 W/m 3,2 km/h (1 Bft) 97,83 %
02.08.2023 04:22 15,7 C 15,0 C 11,7 C 92 % 1001,3 hPa 0,0 l/m 0 min 0 min 0 W/m 3,2 km/h (1 Bft) 95,74 %
02.08.2023 04:24 15,7 C 15,0 C 11,7 C 92 % 1001,3 hPa 0,0 l/m 0 min 0 min 0 W/m 3,2 km/h (1 Bft) 97,87 %
02.08.2023 04:26 15,8 C 15,0 C 11,7 C 92 % 1001,2 hPa 0,0 l/m 0 min 0 min 0 W/m 6,4 km/h (2 Bft) 97,87 %
02.08.2023 04:28 15,8 C 15,0 C 11,7 C 92 % 1001,2 hPa 0,0 l/m 0 min 0 min 0 W/m 6,4 km/h (2 Bft) 100,00 %
02.08.2023 04:30 15,8 C 15,0 C 12,2 C 92 % 1001,0 hPa 0,0 l/m 0 min 0 min 0 W/m 6,4 km/h (2 Bft) 100,00 %
02.08.2023 04:32 15,8 C 15,0 C 12,2 C 92 % 1001,0 hPa 0,0 l/m 0 min 0 min 0 W/m 3,2 km/h (1 Bft) 100,00 %
02.08.2023 04:34 15,8 C 15,0 C 12,2 C 92 % 1001,0 hPa 0,0 l/m 0 min 0 min 0 W/m 3,2 km/h (1 Bft) 95,65 %
02.08.2023 04:36 15,8 C 15,0 C 12,2 C 92 % 1000,9 hPa 0,0 l/m 0 min 0 min 0 W/m 0,0 km/h (0 Bft) 100,00 %
02.08.2023 04:38 15,8 C 15,0 C 12,2 C 92 % 1000,9 hPa 0,0 l/m 0 min 0 min 0 W/m 3,2 km/h (1 Bft) 100,00 %
02.08.2023 04:40 15,8 C 15,0 C 12,2 C 92 % 1000,8 hPa 0,0 l/m 0 min 0 min 0 W/m 3,2 km/h (1 Bft) 97,87 %
02.08.2023 04:42 15,8 C 15,0 C 12,2 C 92 % 1000,8 hPa 0,0 l/m 0 min 0 min 0 W/m 3,2 km/h (1 Bft) 97,87 %
02.08.2023 04:44 15,8 C 15,0 C 12,2 C 92 % 1000,8 hPa 0,0 l/m 0 min 0 min 0 W/m 6,4 km/h (2 Bft) 100,00 %
02.08.2023 04:46 15,8 C 15,0 C 12,2 C 92 % 1000,7 hPa 0,0 l/m 0 min 0 min 0 W/m 3,2 km/h (1 Bft) 97,83 %
02.08.2023 04:48 15,8 C 15,0 C 12,2 C 92 % 1000,6 hPa 0,0 l/m 0 min 0 min 0 W/m 3,2 km/h (1 Bft) 100,00 %
02.08.2023 04:50 15,8 C 15,0 C 12,2 C 92 % 1000,5 hPa 0,0 l/m 0 min 0 min 0 W/m 6,4 km/h (2 Bft) 100,00 %
02.08.2023 04:52 15,9 C 15,0 C 12,2 C 92 % 1000,5 hPa 0,0 l/m 0 min 0 min 0 W/m 3,2 km/h (1 Bft) 100,00 %
02.08.2023 04:54 15,8 C 15,0 C 12,2 C 92 % 1000,4 hPa 0,0 l/m 0 min 0 min 0 W/m 6,4 km/h (2 Bft) 100,00 %
02.08.2023 04:56 15,9 C 15,0 C 12,2 C 92 % 1000,4 hPa 0,0 l/m 0 min 0 min 0 W/m 3,2 km/h (1 Bft) 100,00 %
02.08.2023 04:58 15,9 C 15,0 C 12,2 C 92 % 1000,4 hPa 0,0 l/m 0 min 0 min 0 W/m 3,2 km/h (1 Bft) 100,00 %
02.08.2023 05:00 15,9 C 15,0 C 12,2 C 92 % 1000,4 hPa 0,0 l/m 0 min 0 min 0 W/m 6,4 km/h (2 Bft) 100,00 %
02.08.2023 05:02 15,9 C 15,0 C 12,2 C 92 % 1000,3 hPa 0,0 l/m 0 min 0 min 0 W/m 12,9 km/h (3 Bft) 100,00 %
02.08.2023 05:04 15,9 C 15,0 C 12,2 C 92 % 1000,4 hPa 0,0 l/m 0 min 0 min 0 W/m 3,2 km/h (1 Bft) 100,00 %
02.08.2023 05:06 15,9 C 15,0 C 11,7 C 92 % 1000,4 hPa 0,0 l/m 0 min 0 min 0 W/m 3,2 km/h (1 Bft) 100,00 %
02.08.2023 05:08 15,9 C 15,0 C 11,7 C 92 % 1000,4 hPa 0,0 l/m 0 min 0 min 0 W/m 3,2 km/h (1 Bft) 100,00 %
02.08.2023 05:10 15,9 C 15,0 C 11,7 C 92 % 1000,3 hPa 0,0 l/m 0 min 0 min 0 W/m 3,2 km/h (1 Bft) 100,00 %
02.08.2023 05:12 15,9 C 15,0 C 11,7 C 92 % 1000,4 hPa 0,0 l/m 0 min 0 min 0 W/m 3,2 km/h (1 Bft) 100,00 %
02.08.2023 05:14 15,9 C 15,6 C 11,7 C 92 % 1000,4 hPa 0,0 l/m 0 min 0 min 0 W/m 3,2 km/h (1 Bft) 97,87 %
02.08.2023 05:16 15,9 C 15,6 C 11,7 C 92 % 1000,4 hPa 0,0 l/m 0 min 0 min 0 W/m 3,2 km/h (1 Bft) 100,00 %
02.08.2023 05:18 16,0 C 15,0 C 11,7 C 92 % 1000,3 hPa 0,0 l/m 0 min 0 min 0 W/m 3,2 km/h (1 Bft) 100,00 %
02.08.2023 05:20 16,0 C 15,6 C 11,7 C 92 % 1000,4 hPa 0,0 l/m 0 min 0 min 0 W/m 3,2 km/h (1 Bft) 100,00 %
02.08.2023 05:22 16,0 C 15,6 C 11,7 C 92 % 1000,3 hPa 0,0 l/m 0 min 0 min 0 W/m 3,2 km/h (1 Bft) 100,00 %
02.08.2023 05:24 16,0 C 15,6 C 11,7 C 92 % 1000,3 hPa 0,0 l/m 0 min 0 min 0 W/m 0,0 km/h (0 Bft) 97,87 %
02.08.2023 05:26 16,0 C 15,0 C 11,7 C 92 % 1000,3 hPa 0,0 l/m 0 min 0 min 0 W/m 3,2 km/h (1 Bft) 100,00 %
02.08.2023 05:28 16,0 C 15,0 C 11,7 C 92 % 1000,3 hPa 0,0 l/m 0 min 0 min 0 W/m 3,2 km/h (1 Bft) 97,87 %
02.08.2023 05:30 16,0 C 15,0 C 11,7 C 92 % 1000,2 hPa 0,0 l/m 0 min 0 min 0 W/m 3,2 km/h (1 Bft) 100,00 %
02.08.2023 05:32 16,0 C 15,0 C 11,7 C 92 % 1000,2 hPa 0,0 l/m 0 min 0 min 0 W/m 3,2 km/h (1 Bft) 95,74 %
02.08.2023 05:34 16,0 C 15,0 C 11,7 C 92 % 1000,2 hPa 0,0 l/m 0 min 0 min 0 W/m 3,2 km/h (1 Bft) 95,65 %
02.08.2023 05:36 16,0 C 15,0 C 12,2 C 92 % 1000,1 hPa 0,0 l/m 0 min 0 min 0 W/m 3,2 km/h (1 Bft) 95,74 %
02.08.2023 05:38 15,9 C 15,0 C 12,2 C 92 % 1000,0 hPa 0,0 l/m 0 min 0 min 0 W/m 3,2 km/h (1 Bft) 97,87 %
02.08.2023 05:40 15,9 C 15,0 C 12,2 C 92 % 999,9 hPa 0,0 l/m 0 min 0 min 0 W/m 3,2 km/h (1 Bft) 97,87 %
02.08.2023 05:42 15,9 C 15,0 C 12,2 C 92 % 999,8 hPa 0,0 l/m 0 min 0 min 0 W/m 3,2 km/h (1 Bft) 97,87 %
02.08.2023 05:44 15,9 C 15,0 C 11,7 C 92 % 999,7 hPa 0,0 l/m 0 min 0 min 0 W/m 3,2 km/h (1 Bft) 95,74 %
02.08.2023 05:46 15,9 C 15,0 C 11,7 C 92 % 999,6 hPa 0,0 l/m 0 min 0 min 0 W/m 0,0 km/h (0 Bft) 93,48 %
02.08.2023 05:48 15,9 C 15,0 C 11,7 C 92 % 999,5 hPa 0,0 l/m 0 min 0 min 0 W/m 3,2 km/h (1 Bft) 95,74 %
02.08.2023 05:50 15,9 C 15,0 C 11,7 C 92 % 999,5 hPa 0,0 l/m 0 min 0 min 0 W/m 3,2 km/h (1 Bft) 93,62 %
02.08.2023 05:52 15,9 C 15,0 C 11,7 C 92 % 999,5 hPa 0,0 l/m 0 min 0 min 0 W/m 3,2 km/h (1 Bft) 95,74 %
02.08.2023 05:54 15,9 C 15,0 C 11,7 C 92 % 999,6 hPa 0,0 l/m 0 min 0 min 4 W/m 3,2 km/h (1 Bft) 95,74 %
02.08.2023 05:56 15,9 C 15,0 C 11,7 C 92 % 999,6 hPa 0,0 l/m 0 min 0 min 5 W/m 3,2 km/h (1 Bft) 95,74 %
02.08.2023 05:58 15,9 C 15,0 C 11,7 C 92 % 999,6 hPa 0,0 l/m 0 min 0 min 7 W/m 3,2 km/h (1 Bft) 95,74 %
02.08.2023 06:00 15,9 C 15,0 C 11,7 C 92 % 999,7 hPa 0,0 l/m 0 min 0 min 7 W/m 0,0 km/h (0 Bft) 95,65 %
02.08.2023 06:02 15,9 C 15,0 C 11,7 C 92 % 999,7 hPa 0,0 l/m 0 min 0 min 7 W/m 6,4 km/h (2 Bft) 95,74 %
02.08.2023 06:04 15,9 C 15,0 C 11,7 C 92 % 999,7 hPa 0,0 l/m 0 min 0 min 6 W/m 6,4 km/h (2 Bft) 93,88 %
02.08.2023 06:08 15,8 C 15,0 C 11,7 C 92 % 999,7 hPa 0,0 l/m 0 min 0 min 2 W/m 6,4 km/h (2 Bft) 93,62 %
02.08.2023 06:10 15,8 C 15,0 C 11,7 C 92 % 999,6 hPa 0,0 l/m 0 min 0 min 0 W/m 6,4 km/h (2 Bft) 93,62 %
02.08.2023 06:12 15,8 C 15,0 C 11,7 C 92 % 999,6 hPa 0,0 l/m 0 min 0 min 0 W/m 6,4 km/h (2 Bft) 95,65 %
02.08.2023 06:14 15,8 C 15,0 C 11,7 C 92 % 999,5 hPa 0,0 l/m 0 min 0 min 0 W/m 3,2 km/h (1 Bft) 95,74 %
02.08.2023 06:16 15,8 C 15,0 C 11,7 C 92 % 999,4 hPa 0,0 l/m 0 min 0 min 0 W/m 3,2 km/h (1 Bft) 97,87 %
02.08.2023 06:18 15,8 C 15,0 C 11,7 C 92 % 999,4 hPa 0,0 l/m 0 min 0 min 0 W/m 3,2 km/h (1 Bft) 97,87 %
02.08.2023 06:20 15,8 C 15,0 C 11,7 C 92 % 999,4 hPa 0,0 l/m 0 min 2 min 0 W/m 3,2 km/h (1 Bft) 100,00 %
02.08.2023 06:22 15,8 C 15,0 C 11,7 C 92 % 999,4 hPa 0,0 l/m 0 min 0 min 4 W/m 6,4 km/h (2 Bft) 97,87 %
02.08.2023 06:24 15,8 C 15,0 C 11,7 C 92 % 999,4 hPa 0,0 l/m 0 min 0 min 8 W/m 3,2 km/h (1 Bft) 97,87 %
02.08.2023 06:26 15,8 C 15,0 C 11,7 C 92 % 999,3 hPa 0,0 l/m 0 min 0 min 11 W/m 6,4 km/h (2 Bft) 95,65 %
02.08.2023 06:28 15,8 C 15,0 C 11,7 C 92 % 999,3 hPa 0,0 l/m 0 min 0 min 11 W/m 6,4 km/h (2 Bft) 97,87 %
02.08.2023 06:30 15,8 C 15,0 C 11,7 C 92 % 999,2 hPa 0,0 l/m 0 min 2 min 11 W/m 3,2 km/h (1 Bft) 97,87 %
02.08.2023 06:32 15,8 C 15,0 C 11,7 C 92 % 999,1 hPa 0,0 l/m 0 min 0 min 10 W/m 12,9 km/h (3 Bft) 95,74 %
02.08.2023 06:34 15,8 C 15,0 C 11,7 C 92 % 999,0 hPa 0,0 l/m 0 min 2 min 9 W/m 6,4 km/h (2 Bft) 97,87 %
02.08.2023 06:36 15,8 C 15,0 C 11,7 C 93 % 998,9 hPa 0,0 l/m 0 min 2 min 10 W/m 12,9 km/h (3 Bft) 95,74 %
02.08.2023 06:38 15,8 C 15,0 C 11,7 C 92 % 998,8 hPa 0,0 l/m 0 min 2 min 12 W/m 6,4 km/h (2 Bft) 97,83 %
02.08.2023 06:40 15,8 C 15,0 C 11,1 C 93 % 998,7 hPa 0,0 l/m 0 min 2 min 12 W/m 3,2 km/h (1 Bft) 95,74 %
02.08.2023 06:42 15,8 C 15,0 C 11,1 C 93 % 998,6 hPa 0,0 l/m 0 min 2 min 12 W/m 12,9 km/h (3 Bft) 97,87 %
02.08.2023 06:44 15,8 C 15,0 C 11,1 C 93 % 998,7 hPa 0,0 l/m 0 min 0 min 11 W/m 12,9 km/h (3 Bft) 95,74 %
02.08.2023 06:46 15,8 C 15,0 C 11,1 C 93 % 998,6 hPa 0,0 l/m 0 min 0 min 13 W/m 16,1 km/h (3 Bft) 97,87 %
02.08.2023 06:48 15,8 C 15,0 C 11,1 C 93 % 998,5 hPa 0,0 l/m 0 min 0 min 14 W/m 12,9 km/h (3 Bft) 97,87 %
02.08.2023 06:50 15,8 C 15,0 C 11,1 C 93 % 998,5 hPa 0,0 l/m 0 min 0 min 13 W/m 6,4 km/h (2 Bft) 97,87 %
02.08.2023 06:52 15,8 C 15,0 C 11,1 C 93 % 998,4 hPa 0,0 l/m 0 min 0 min 16 W/m 6,4 km/h (2 Bft) 95,65 %
02.08.2023 06:54 15,7 C 15,0 C 11,1 C 93 % 998,3 hPa 0,0 l/m 0 min 0 min 19 W/m 12,9 km/h (3 Bft) 97,87 %
02.08.2023 06:56 15,7 C 15,0 C 11,1 C 93 % 998,2 hPa 0,0 l/m 0 min 0 min 18 W/m 19,3 km/h (3 Bft) 97,87 %
02.08.2023 06:58 15,7 C 15,0 C 11,1 C 93 % 998,2 hPa 0,0 l/m 0 min 0 min 14 W/m 3,2 km/h (1 Bft) 97,87 %
02.08.2023 07:00 15,7 C 15,0 C 11,1 C 93 % 998,2 hPa 0,0 l/m 0 min 0 min 12 W/m 22,5 km/h (4 Bft) 97,87 %
02.08.2023 07:02 15,7 C 15,0 C 11,1 C 94 % 998,1 hPa 0,0 l/m 0 min 0 min 14 W/m 12,9 km/h (3 Bft) 95,74 %
02.08.2023 07:04 15,7 C 15,0 C 11,1 C 94 % 998,1 hPa 0,0 l/m 0 min 0 min 18 W/m 12,9 km/h (3 Bft) 97,96 %
02.08.2023 07:06 15,7 C 15,0 C 11,1 C 94 % 998,1 hPa 0,0 l/m 0 min 0 min 19 W/m 12,9 km/h (3 Bft) 97,87 %
02.08.2023 07:08 15,7 C 15,0 C 11,1 C 94 % 998,1 hPa 0,0 l/m 0 min 0 min 21 W/m 12,9 km/h (3 Bft) 95,74 %
02.08.2023 07:10 15,7 C 15,0 C 11,1 C 94 % 997,9 hPa 0,0 l/m 0 min 0 min 27 W/m 12,9 km/h (3 Bft) 93,62 %
02.08.2023 07:12 15,7 C 15,0 C 11,7 C 94 % 997,9 hPa 0,0 l/m 0 min 0 min 32 W/m 12,9 km/h (3 Bft) 95,74 %
02.08.2023 07:14 15,7 C 15,0 C 11,7 C 94 % 997,9 hPa 0,0 l/m 0 min 0 min 35 W/m 6,4 km/h (2 Bft) 97,87 %
02.08.2023 07:16 15,7 C 15,0 C 11,7 C 94 % 997,8 hPa 0,0 l/m 0 min 0 min 33 W/m 12,9 km/h (3 Bft) 100,00 %
02.08.2023 07:18 15,7 C 15,0 C 11,7 C 94 % 997,8 hPa 0,0 l/m 0 min 0 min 33 W/m 16,1 km/h (3 Bft) 100,00 %
02.08.2023 07:20 15,7 C 15,0 C 11,7 C 94 % 997,8 hPa 0,0 l/m 0 min 0 min 33 W/m 12,9 km/h (3 Bft) 100,00 %
02.08.2023 07:22 15,7 C 15,0 C 11,7 C 94 % 997,7 hPa 0,0 l/m 0 min 0 min 35 W/m 16,1 km/h (3 Bft) 100,00 %
02.08.2023 07:24 15,8 C 15,0 C 11,7 C 95 % 997,7 hPa 0,0 l/m 0 min 0 min 34 W/m 12,9 km/h (3 Bft) 100,00 %
02.08.2023 07:26 15,8 C 15,0 C 11,7 C 95 % 997,7 hPa 0,0 l/m 0 min 2 min 33 W/m 12,9 km/h (3 Bft) 100,00 %
02.08.2023 07:28 15,8 C 15,0 C 11,7 C 95 % 997,6 hPa 0,0 l/m 0 min 2 min 31 W/m 12,9 km/h (3 Bft) 100,00 %
02.08.2023 07:30 15,8 C 15,0 C 11,1 C 95 % 997,6 hPa 0,0 l/m 0 min 2 min 30 W/m 12,9 km/h (3 Bft) 100,00 %
02.08.2023 07:32 15,8 C 15,0 C 11,1 C 95 % 997,5 hPa 0,2 l/m 0 min 2 min 32 W/m 19,3 km/h (3 Bft) 100,00 %
02.08.2023 07:34 15,8 C 15,0 C 11,1 C 95 % 997,5 hPa 0,0 l/m 0 min 2 min 32 W/m 16,1 km/h (3 Bft) 100,00 %
02.08.2023 07:36 15,8 C 15,0 C 11,1 C 95 % 997,5 hPa 0,0 l/m 0 min 0 min 29 W/m 6,4 km/h (2 Bft) 100,00 %
02.08.2023 07:38 15,8 C 15,0 C 11,1 C 95 % 997,4 hPa 0,0 l/m 0 min 2 min 27 W/m 16,1 km/h (3 Bft) 100,00 %
02.08.2023 07:40 15,8 C 15,0 C 11,1 C 95 % 997,3 hPa 0,0 l/m 0 min 2 min 26 W/m 16,1 km/h (3 Bft) 100,00 %
02.08.2023 07:42 15,8 C 15,0 C 11,1 C 95 % 997,3 hPa 0,0 l/m 0 min 2 min 26 W/m 6,4 km/h (2 Bft) 95,74 %
02.08.2023 07:44 15,8 C 15,0 C 11,1 C 95 % 997,3 hPa 0,0 l/m 0 min 0 min 26 W/m 16,1 km/h (3 Bft) 97,87 %
02.08.2023 07:46 15,8 C 15,0 C 11,1 C 95 % 997,3 hPa 0,0 l/m 0 min 2 min 28 W/m 16,1 km/h (3 Bft) 97,83 %
02.08.2023 07:48 15,8 C 15,0 C 11,1 C 95 % 997,3 hPa 0,0 l/m 0 min 2 min 27 W/m 16,1 km/h (3 Bft) 97,87 %
02.08.2023 07:50 15,8 C 15,0 C 11,1 C 95 % 997,2 hPa 0,0 l/m 0 min 2 min 26 W/m 16,1 km/h (3 Bft) 97,87 %
02.08.2023 07:52 15,8 C 15,0 C 11,1 C 96 % 997,2 hPa 0,0 l/m 0 min 2 min 26 W/m 6,4 km/h (2 Bft) 97,87 %
02.08.2023 07:54 15,8 C 15,0 C 11,1 C 96 % 997,2 hPa 0,0 l/m 0 min 2 min 29 W/m 9,7 km/h (2 Bft) 97,87 %
02.08.2023 07:56 15,8 C 15,0 C 11,1 C 96 % 997,1 hPa 0,2 l/m 0 min 2 min 33 W/m 16,1 km/h (3 Bft) 95,74 %
02.08.2023 07:58 15,8 C 15,0 C 11,1 C 96 % 997,1 hPa 0,0 l/m 0 min 2 min 33 W/m 9,7 km/h (2 Bft) 97,83 %
02.08.2023 08:00 15,8 C 15,0 C 11,1 C 96 % 997,0 hPa 0,0 l/m 0 min 2 min 34 W/m 6,4 km/h (2 Bft) 95,74 %
02.08.2023 08:02 15,8 C 15,0 C 11,1 C 96 % 996,9 hPa 0,0 l/m 0 min 2 min 40 W/m 12,9 km/h (3 Bft) 97,87 %
02.08.2023 08:04 15,8 C 15,0 C 11,1 C 96 % 996,9 hPa 0,0 l/m 0 min 2 min 47 W/m 6,4 km/h (2 Bft) 98,00 %
02.08.2023 08:06 15,8 C 15,0 C 11,1 C 96 % 996,8 hPa 0,0 l/m 0 min 2 min 54 W/m 19,3 km/h (3 Bft) 96,55 %
02.08.2023 08:08 15,8 C 15,0 C 11,1 C 96 % 997,0 hPa 0,0 l/m 0 min 2 min 54 W/m 9,7 km/h (2 Bft) 53,49 %
02.08.2023 08:10 15,8 C 15,0 C 11,1 C 96 % 996,9 hPa 0,0 l/m 0 min 2 min 50 W/m 12,9 km/h (3 Bft) 94,29 %
02.08.2023 08:12 15,8 C 15,0 C 11,1 C 96 % 996,9 hPa 0,0 l/m 0 min 2 min 48 W/m 19,3 km/h (3 Bft) 97,87 %
02.08.2023 08:14 15,8 C 15,0 C 11,1 C 96 % 996,9 hPa 0,2 l/m 0 min 2 min 52 W/m 12,9 km/h (3 Bft) 97,87 %
02.08.2023 08:16 15,8 C 15,0 C 11,1 C 96 % 996,9 hPa 0,0 l/m 0 min 2 min 52 W/m 12,9 km/h (3 Bft) 97,87 %
02.08.2023 08:18 15,8 C 15,0 C 11,1 C 96 % 996,8 hPa 0,2 l/m 0 min 2 min 48 W/m 16,1 km/h (3 Bft) 97,87 %
02.08.2023 08:20 15,8 C 15,0 C 11,1 C 96 % 996,8 hPa 0,0 l/m 0 min 2 min 44 W/m 19,3 km/h (3 Bft) 95,74 %
02.08.2023 08:22 15,8 C 15,0 C 11,1 C 96 % 996,7 hPa 0,0 l/m 0 min 2 min 42 W/m 12,9 km/h (3 Bft) 95,74 %
02.08.2023 08:24 15,8 C 15,0 C 11,1 C 96 % 996,6 hPa 0,0 l/m 0 min 2 min 42 W/m 12,9 km/h (3 Bft) 95,65 %
02.08.2023 08:26 15,8 C 15,0 C 11,1 C 96 % 996,6 hPa 0,0 l/m 0 min 2 min 44 W/m 19,3 km/h (3 Bft) 98,18 %
02.08.2023 08:28 15,8 C 15,0 C 11,1 C 96 % 996,6 hPa 0,2 l/m 0 min 2 min 45 W/m 12,9 km/h (3 Bft) 96,00 %
02.08.2023 08:30 15,8 C 15,0 C 11,1 C 97 % 996,5 hPa 0,0 l/m 0 min 2 min 44 W/m 16,1 km/h (3 Bft) 97,83 %
02.08.2023 08:32 15,8 C 15,0 C 11,1 C 97 % 996,3 hPa 0,0 l/m 0 min 2 min 44 W/m 12,9 km/h (3 Bft) 97,87 %
02.08.2023 08:34 15,8 C 15,0 C 11,1 C 97 % 996,3 hPa 0,2 l/m 0 min 2 min 47 W/m 6,4 km/h (2 Bft) 97,87 %
02.08.2023 08:36 15,8 C 15,0 C 11,1 C 97 % 996,2 hPa 0,0 l/m 0 min 2 min 50 W/m 16,1 km/h (3 Bft) 95,74 %
02.08.2023 08:38 15,8 C 15,0 C 11,1 C 97 % 996,2 hPa 0,0 l/m 0 min 2 min 50 W/m 12,9 km/h (3 Bft) 97,87 %
02.08.2023 08:40 15,8 C 15,0 C 11,1 C 97 % 996,2 hPa 0,0 l/m 0 min 2 min 51 W/m 19,3 km/h (3 Bft) 100,00 %
02.08.2023 08:42 15,8 C 15,0 C 11,1 C 97 % 996,1 hPa 0,2 l/m 0 min 2 min 48 W/m 12,9 km/h (3 Bft) 95,74 %
02.08.2023 08:44 15,9 C 15,0 C 11,1 C 97 % 996,0 hPa 0,0 l/m 0 min 0 min 49 W/m 12,9 km/h (3 Bft) 97,83 %
02.08.2023 08:46 15,8 C 15,0 C 11,1 C 97 % 996,0 hPa 0,0 l/m 0 min 0 min 60 W/m 16,1 km/h (3 Bft) 95,74 %
02.08.2023 08:48 15,9 C 15,0 C 11,7 C 97 % 995,9 hPa 0,0 l/m 0 min 0 min 69 W/m 19,3 km/h (3 Bft) 93,62 %
02.08.2023 08:50 15,9 C 15,0 C 11,7 C 97 % 995,8 hPa 0,0 l/m 0 min 0 min 59 W/m 12,9 km/h (3 Bft) 97,87 %
02.08.2023 08:52 15,9 C 15,0 C 11,7 C 97 % 995,8 hPa 0,0 l/m 0 min 2 min 57 W/m 9,7 km/h (2 Bft) 95,74 %
02.08.2023 08:54 15,9 C 15,0 C 11,7 C 97 % 995,7 hPa 0,0 l/m 0 min 2 min 60 W/m 6,4 km/h (2 Bft) 97,87 %
02.08.2023 08:56 15,9 C 15,0 C 11,7 C 97 % 995,6 hPa 0,2 l/m 0 min 2 min 60 W/m 16,1 km/h (3 Bft) 95,74 %
02.08.2023 08:58 15,9 C 15,0 C 11,7 C 97 % 995,6 hPa 0,0 l/m 0 min 2 min 50 W/m 9,7 km/h (2 Bft) 97,83 %
02.08.2023 09:00 15,9 C 15,0 C 11,7 C 97 % 995,5 hPa 0,0 l/m 0 min 2 min 51 W/m 12,9 km/h (3 Bft) 97,87 %
02.08.2023 09:02 15,9 C 15,0 C 11,7 C 97 % 995,5 hPa 0,0 l/m 0 min 2 min 48 W/m 16,1 km/h (3 Bft) 100,00 %
02.08.2023 09:04 15,9 C 15,0 C 11,7 C 97 % 995,4 hPa 0,0 l/m 0 min 0 min 53 W/m 16,1 km/h (3 Bft) 100,00 %
02.08.2023 09:06 15,9 C 15,0 C 11,7 C 97 % 995,3 hPa 0,0 l/m 0 min 2 min 61 W/m 12,9 km/h (3 Bft) 95,74 %
02.08.2023 09:08 15,9 C 15,0 C 11,7 C 98 % 995,3 hPa 0,0 l/m 0 min 2 min 75 W/m 9,7 km/h (2 Bft) 100,00 %
02.08.2023 09:10 15,9 C 15,0 C 11,7 C 98 % 995,2 hPa 0,0 l/m 0 min 2 min 85 W/m 12,9 km/h (3 Bft) 100,00 %
02.08.2023 09:12 16,0 C 15,0 C 11,7 C 98 % 995,1 hPa 0,2 l/m 0 min 0 min 75 W/m 12,9 km/h (3 Bft) 95,65 %
02.08.2023 09:14 16,0 C 15,0 C 11,7 C 98 % 995,2 hPa 0,0 l/m 0 min 0 min 70 W/m 12,9 km/h (3 Bft) 100,00 %
02.08.2023 09:16 16,0 C 15,0 C 11,7 C 98 % 995,1 hPa 0,0 l/m 0 min 0 min 72 W/m 12,9 km/h (3 Bft) 97,87 %
02.08.2023 09:18 16,0 C 15,0 C 11,7 C 98 % 995,1 hPa 0,0 l/m 0 min 0 min 86 W/m 12,9 km/h (3 Bft) 95,74 %
02.08.2023 09:20 16,1 C 15,6 C 11,7 C 98 % 995,0 hPa 0,0 l/m 0 min 0 min 107 W/m 22,5 km/h (4 Bft) 100,00 %
02.08.2023 09:22 16,1 C 15,6 C 11,7 C 98 % 994,9 hPa 0,0 l/m 0 min 0 min 103 W/m 16,1 km/h (3 Bft) 95,74 %
02.08.2023 09:24 16,1 C 15,6 C 11,7 C 98 % 994,9 hPa 0,0 l/m 0 min 0 min 114 W/m 19,3 km/h (3 Bft) 97,87 %
02.08.2023 09:26 16,1 C 15,6 C 11,7 C 98 % 994,7 hPa 0,0 l/m 0 min 0 min 134 W/m 12,9 km/h (3 Bft) 95,65 %
02.08.2023 09:28 16,1 C 15,6 C 11,7 C 98 % 994,8 hPa 0,0 l/m 0 min 0 min 132 W/m 9,7 km/h (2 Bft) 97,87 %
02.08.2023 09:30 16,2 C 15,6 C 11,7 C 98 % 994,7 hPa 0,0 l/m 0 min 0 min 123 W/m 9,7 km/h (2 Bft) 97,87 %
02.08.2023 09:32 16,2 C 15,6 C 12,2 C 98 % 994,5 hPa 0,0 l/m 0 min 0 min 152 W/m 16,1 km/h (3 Bft) 97,87 %
02.08.2023 09:34 16,2 C 15,6 C 12,2 C 98 % 994,5 hPa 0,0 l/m 0 min 0 min 152 W/m 12,9 km/h (3 Bft) 93,62 %
02.08.2023 09:36 16,2 C 15,6 C 12,2 C 98 % 994,4 hPa 0,0 l/m 0 min 0 min 179 W/m 25,7 km/h (4 Bft) 95,74 %
02.08.2023 09:38 16,3 C 15,6 C 12,2 C 98 % 994,4 hPa 0,0 l/m 0 min 0 min 158 W/m 25,7 km/h (4 Bft) 93,48 %
02.08.2023 09:40 16,3 C 15,6 C 12,2 C 98 % 994,3 hPa 0,0 l/m 0 min 0 min 127 W/m 19,3 km/h (3 Bft) 95,74 %
02.08.2023 09:42 16,3 C 15,6 C 12,2 C 98 % 994,3 hPa 0,0 l/m 0 min 2 min 118 W/m 16,1 km/h (3 Bft) 93,62 %
02.08.2023 09:44 16,3 C 16,1 C 12,2 C 98 % 994,2 hPa 0,0 l/m 0 min 2 min 195 W/m 12,9 km/h (3 Bft) 95,74 %
02.08.2023 09:46 16,3 C 16,1 C 12,2 C 98 % 994,1 hPa 0,0 l/m 0 min 0 min 204 W/m 12,9 km/h (3 Bft) 95,74 %
02.08.2023 09:48 16,4 C 16,1 C 12,2 C 98 % 994,1 hPa 0,0 l/m 0 min 0 min 168 W/m 16,1 km/h (3 Bft) 95,74 %
02.08.2023 09:50 16,4 C 16,1 C 12,2 C 98 % 994,1 hPa 0,0 l/m 0 min 0 min 148 W/m 9,7 km/h (2 Bft) 95,74 %
02.08.2023 09:52 16,4 C 16,1 C 12,2 C 98 % 994,0 hPa 0,0 l/m 0 min 0 min 147 W/m 12,9 km/h (3 Bft) 95,65 %
02.08.2023 09:54 16,4 C 16,1 C 12,2 C 98 % 994,0 hPa 0,0 l/m 0 min 0 min 158 W/m 16,1 km/h (3 Bft) 95,74 %
02.08.2023 09:56 16,4 C 16,1 C 12,2 C 98 % 993,9 hPa 0,0 l/m 0 min 0 min 162 W/m 16,1 km/h (3 Bft) 93,62 %
02.08.2023 09:58 16,5 C 16,1 C 12,2 C 98 % 993,9 hPa 0,0 l/m 0 min 0 min 122 W/m 16,1 km/h (3 Bft) 95,74 %
02.08.2023 10:00 16,5 C 16,1 C 12,2 C 98 % 993,9 hPa 0,0 l/m 0 min 0 min 182 W/m 19,3 km/h (3 Bft) 97,87 %
02.08.2023 10:02 16,6 C 16,7 C 12,2 C 99 % 993,8 hPa 0,0 l/m 0 min 0 min 238 W/m 16,1 km/h (3 Bft) 95,74 %
02.08.2023 10:04 16,6 C 16,7 C 12,2 C 99 % 993,9 hPa 0,0 l/m 0 min 0 min 199 W/m 22,5 km/h (4 Bft) 95,74 %
02.08.2023 10:06 16,6 C 16,7 C 12,2 C 99 % 994,0 hPa 0,0 l/m 0 min 0 min 159 W/m 19,3 km/h (3 Bft) 96,55 %
02.08.2023 10:08 16,6 C 16,7 C 12,8 C 98 % 993,9 hPa 0,0 l/m 0 min 0 min 158 W/m 12,9 km/h (3 Bft) 100,00 %
02.08.2023 10:10 16,7 C 16,7 C 12,2 C 98 % 993,8 hPa 0,0 l/m 0 min 0 min 164 W/m 19,3 km/h (3 Bft) 97,83 %
02.08.2023 10:12 16,7 C 16,7 C 12,2 C 98 % 993,9 hPa 0,0 l/m 0 min 0 min 146 W/m 19,3 km/h (3 Bft) 97,87 %
02.08.2023 10:14 16,7 C 16,7 C 12,2 C 98 % 993,8 hPa 0,0 l/m 0 min 0 min 178 W/m 19,3 km/h (3 Bft) 97,87 %
02.08.2023 10:16 16,7 C 16,7 C 12,2 C 98 % 993,7 hPa 0,0 l/m 0 min 0 min 200 W/m 19,3 km/h (3 Bft) 97,87 %
02.08.2023 10:18 16,7 C 16,7 C 12,2 C 98 % 993,7 hPa 0,0 l/m 0 min 0 min 160 W/m 32,2 km/h (5 Bft) 100,00 %
02.08.2023 10:20 16,7 C 16,7 C 12,2 C 98 % 993,8 hPa 0,0 l/m 0 min 0 min 125 W/m 16,1 km/h (3 Bft) 100,00 %
02.08.2023 10:22 16,7 C 16,7 C 12,2 C 98 % 993,8 hPa 0,0 l/m 0 min 0 min 94 W/m 22,5 km/h (4 Bft) 100,00 %
02.08.2023 10:24 16,7 C 16,7 C 12,2 C 98 % 993,8 hPa 0,0 l/m 0 min 0 min 91 W/m 12,9 km/h (3 Bft) 100,00 %
02.08.2023 10:26 16,7 C 16,7 C 12,2 C 98 % 993,9 hPa 0,0 l/m 0 min 0 min 116 W/m 16,1 km/h (3 Bft) 100,00 %
02.08.2023 10:28 16,8 C 16,7 C 12,8 C 98 % 993,8 hPa 0,0 l/m 0 min 0 min 155 W/m 12,9 km/h (3 Bft) 100,00 %
02.08.2023 10:30 16,8 C 16,7 C 12,8 C 98 % 993,8 hPa 0,0 l/m 0 min 0 min 160 W/m 12,9 km/h (3 Bft) 100,00 %
02.08.2023 10:32 16,8 C 16,7 C 12,8 C 98 % 993,7 hPa 0,0 l/m 0 min 0 min 158 W/m 19,3 km/h (3 Bft) 100,00 %
02.08.2023 10:34 16,8 C 16,7 C 12,8 C 98 % 993,7 hPa 0,0 l/m 0 min 0 min 147 W/m 16,1 km/h (3 Bft) 100,00 %
02.08.2023 10:36 16,8 C 16,7 C 12,8 C 98 % 993,6 hPa 0,0 l/m 0 min 0 min 152 W/m 16,1 km/h (3 Bft) 100,00 %
02.08.2023 10:38 16,9 C 16,7 C 12,8 C 98 % 993,6 hPa 0,0 l/m 0 min 0 min 168 W/m 12,9 km/h (3 Bft) 100,00 %
02.08.2023 10:40 16,9 C 16,7 C 12,8 C 98 % 993,6 hPa 0,0 l/m 0 min 0 min 167 W/m 9,7 km/h (2 Bft) 100,00 %
02.08.2023 10:42 16,9 C 16,7 C 12,8 C 98 % 993,6 hPa 0,0 l/m 0 min 0 min 176 W/m 12,9 km/h (3 Bft) 97,87 %
02.08.2023 10:44 17,0 C 16,7 C 12,8 C 98 % 993,6 hPa 0,0 l/m 0 min 2 min 171 W/m 25,7 km/h (4 Bft) 100,00 %
02.08.2023 10:46 17,0 C 16,7 C 12,8 C 98 % 993,6 hPa 0,0 l/m 0 min 0 min 176 W/m 12,9 km/h (3 Bft) 95,65 %
02.08.2023 10:48 17,1 C 16,7 C 12,8 C 98 % 993,5 hPa 0,0 l/m 0 min 2 min 241 W/m 19,3 km/h (3 Bft) 100,00 %
02.08.2023 10:50 17,2 C 16,7 C 12,8 C 98 % 993,5 hPa 0,0 l/m 0 min 2 min 244 W/m 22,5 km/h (4 Bft) 100,00 %
02.08.2023 10:52 17,2 C 17,2 C 12,8 C 98 % 993,4 hPa 0,0 l/m 0 min 2 min 267 W/m 22,5 km/h (4 Bft) 100,00 %
02.08.2023 10:54 17,3 C 17,2 C 12,8 C 99 % 993,4 hPa 0,0 l/m 0 min 0 min 256 W/m 16,1 km/h (3 Bft) 100,00 %
02.08.2023 10:56 17,3 C 17,2 C 12,8 C 99 % 993,4 hPa 0,0 l/m 0 min 2 min 244 W/m 22,5 km/h (4 Bft) 97,87 %
02.08.2023 10:58 17,3 C 17,2 C 13,3 C 99 % 993,3 hPa 0,0 l/m 0 min 0 min 236 W/m 16,1 km/h (3 Bft) 100,00 %
02.08.2023 11:00 17,4 C 17,2 C 13,3 C 98 % 993,3 hPa 0,0 l/m 0 min 0 min 240 W/m 16,1 km/h (3 Bft) 97,83 %
02.08.2023 11:02 17,4 C 17,2 C 13,3 C 98 % 993,3 hPa 0,0 l/m 0 min 0 min 288 W/m 12,9 km/h (3 Bft) 97,87 %
02.08.2023 11:04 17,5 C 17,2 C 13,3 C 98 % 993,3 hPa 0,0 l/m 0 min 0 min 258 W/m 22,5 km/h (4 Bft) 97,87 %
02.08.2023 11:06 17,6 C 17,2 C 13,3 C 98 % 993,2 hPa 0,0 l/m 0 min 2 min 202 W/m 19,3 km/h (3 Bft) 96,67 %
02.08.2023 11:08 17,6 C 17,2 C 13,3 C 98 % 993,1 hPa 0,0 l/m 0 min 0 min 167 W/m 12,9 km/h (3 Bft) 97,14 %
02.08.2023 11:10 17,6 C 17,2 C 13,3 C 99 % 993,2 hPa 0,0 l/m 0 min 0 min 141 W/m 12,9 km/h (3 Bft) 97,87 %
02.08.2023 11:12 17,6 C 17,2 C 13,3 C 99 % 993,2 hPa 0,0 l/m 0 min 2 min 123 W/m 16,1 km/h (3 Bft) 97,83 %
02.08.2023 11:14 17,6 C 17,2 C 13,3 C 99 % 993,2 hPa 0,0 l/m 0 min 2 min 118 W/m 6,4 km/h (2 Bft) 97,87 %
02.08.2023 11:16 17,6 C 17,2 C 13,3 C 99 % 993,2 hPa 0,0 l/m 0 min 0 min 118 W/m 19,3 km/h (3 Bft) 97,87 %
02.08.2023 11:18 17,6 C 16,7 C 13,3 C 99 % 993,1 hPa 0,0 l/m 0 min 0 min 128 W/m 19,3 km/h (3 Bft) 95,74 %
02.08.2023 11:20 17,6 C 16,7 C 13,3 C 99 % 993,0 hPa 0,0 l/m 0 min 0 min 137 W/m 16,1 km/h (3 Bft) 97,87 %
02.08.2023 11:22 17,6 C 17,2 C 13,3 C 99 % 993,0 hPa 0,2 l/m 0 min 0 min 171 W/m 16,1 km/h (3 Bft) 97,87 %
02.08.2023 11:24 17,6 C 17,2 C 13,3 C 99 % 992,9 hPa 0,0 l/m 0 min 2 min 228 W/m 16,1 km/h (3 Bft) 97,87 %
02.08.2023 11:26 17,6 C 17,2 C 13,3 C 99 % 992,9 hPa 0,0 l/m 0 min 0 min 220 W/m 6,4 km/h (2 Bft) 97,83 %
02.08.2023 11:28 17,7 C 17,2 C 13,3 C 99 % 992,8 hPa 0,0 l/m 0 min 0 min 228 W/m 12,9 km/h (3 Bft) 95,74 %
02.08.2023 11:30 17,7 C 17,2 C 13,3 C 99 % 992,7 hPa 0,0 l/m 0 min 0 min 237 W/m 22,5 km/h (4 Bft) 97,87 %
02.08.2023 11:32 17,7 C 17,2 C 13,3 C 99 % 992,7 hPa 0,0 l/m 0 min 0 min 200 W/m 16,1 km/h (3 Bft) 97,87 %
02.08.2023 11:34 17,8 C 17,2 C 13,3 C 99 % 992,7 hPa 0,0 l/m 0 min 0 min 166 W/m 12,9 km/h (3 Bft) 97,87 %
02.08.2023 11:36 17,8 C 17,8 C 13,9 C 99 % 992,7 hPa 0,0 l/m 0 min 0 min 182 W/m 16,1 km/h (3 Bft) 93,62 %
02.08.2023 11:38 17,8 C 17,8 C 13,9 C 99 % 992,7 hPa 0,0 l/m 0 min 0 min 187 W/m 16,1 km/h (3 Bft) 95,74 %
02.08.2023 11:40 17,8 C 17,8 C 13,9 C 99 % 992,7 hPa 0,0 l/m 0 min 0 min 151 W/m 9,7 km/h (2 Bft) 95,65 %
02.08.2023 11:42 17,8 C 17,8 C 13,9 C 99 % 992,7 hPa 0,0 l/m 0 min 2 min 150 W/m 6,4 km/h (2 Bft) 95,74 %
02.08.2023 11:44 17,9 C 17,8 C 13,9 C 99 % 992,7 hPa 0,0 l/m 0 min 2 min 166 W/m 16,1 km/h (3 Bft) 95,74 %
02.08.2023 11:46 17,9 C 17,8 C 13,3 C 99 % 992,6 hPa 0,0 l/m 0 min 0 min 150 W/m 12,9 km/h (3 Bft) 95,74 %
02.08.2023 11:48 17,9 C 17,2 C 13,3 C 99 % 992,6 hPa 0,0 l/m 0 min 0 min 138 W/m 16,1 km/h (3 Bft) 95,74 %
02.08.2023 11:50 17,9 C 17,2 C 13,3 C 99 % 992,6 hPa 0,0 l/m 0 min 0 min 87 W/m 19,3 km/h (3 Bft) 97,87 %
02.08.2023 11:52 17,9 C 17,2 C 13,3 C 99 % 992,6 hPa 0,0 l/m 0 min 0 min 74 W/m 12,9 km/h (3 Bft) 97,83 %
02.08.2023 11:54 17,9 C 17,2 C 13,3 C 99 % 992,7 hPa 0,0 l/m 0 min 0 min 85 W/m 6,4 km/h (2 Bft) 97,67 %
02.08.2023 11:56 17,9 C 17,2 C 13,3 C 99 % 992,8 hPa 0,0 l/m 0 min 0 min 95 W/m 6,4 km/h (2 Bft) 97,83 %
02.08.2023 11:58 17,9 C 17,2 C 13,3 C 99 % 992,7 hPa 0,0 l/m 0 min 2 min 114 W/m 12,9 km/h (3 Bft) 94,00 %
02.08.2023 12:00 17,9 C 17,2 C 13,9 C 99 % 992,7 hPa 0,0 l/m 0 min 2 min 114 W/m 6,4 km/h (2 Bft) 93,62 %
02.08.2023 12:02 17,9 C 17,8 C 13,9 C 99 % 992,7 hPa 0,2 l/m 0 min 2 min 174 W/m 6,4 km/h (2 Bft) 95,74 %
02.08.2023 12:04 17,9 C 17,8 C 13,9 C 99 % 992,7 hPa 0,2 l/m 0 min 2 min 163 W/m 6,4 km/h (2 Bft) 97,96 %
02.08.2023 12:07 18,0 C 17,8 C 13,9 C 99 % 992,5 hPa 0,0 l/m 0 min 0 min 188 W/m 19,3 km/h (3 Bft) 97,96 %
02.08.2023 12:08 18,0 C 17,8 C 13,9 C 99 % 992,5 hPa 0,0 l/m 0 min 0 min 183 W/m 19,3 km/h (3 Bft) 96,77 %
02.08.2023 12:12 18,1 C 17,8 C 13,9 C 99 % 992,5 hPa 0,0 l/m 0 min 0 min 113 W/m 6,4 km/h (2 Bft) 97,44 %
02.08.2023 12:14 18,1 C 17,2 C 13,9 C 99 % 992,4 hPa 0,0 l/m 0 min 0 min 122 W/m 12,9 km/h (3 Bft) 95,74 %
02.08.2023 12:16 18,1 C 17,8 C 13,9 C 99 % 992,4 hPa 0,0 l/m 0 min 0 min 191 W/m 12,9 km/h (3 Bft) 97,87 %
02.08.2023 12:18 18,1 C 17,8 C 13,9 C 99 % 992,4 hPa 0,0 l/m 0 min 0 min 214 W/m 12,9 km/h (3 Bft) 97,87 %
02.08.2023 12:20 18,2 C 17,8 C 13,9 C 99 % 992,3 hPa 0,0 l/m 0 min 0 min 207 W/m 12,9 km/h (3 Bft) 97,87 %
02.08.2023 12:22 18,3 C 18,3 C 14,4 C 99 % 992,3 hPa 0,0 l/m 0 min 0 min 205 W/m 12,9 km/h (3 Bft) 97,83 %
02.08.2023 12:24 18,3 C 18,3 C 14,4 C 99 % 992,3 hPa 0,0 l/m 0 min 0 min 240 W/m 16,1 km/h (3 Bft) 97,87 %
02.08.2023 12:26 18,3 C 18,3 C 14,4 C 99 % 992,3 hPa 0,0 l/m 0 min 0 min 278 W/m 16,1 km/h (3 Bft) 97,87 %
02.08.2023 12:28 18,4 C 18,9 C 14,4 C 99 % 992,2 hPa 0,0 l/m 0 min 0 min 370 W/m 16,1 km/h (3 Bft) 97,87 %
02.08.2023 12:30 18,5 C 18,9 C 14,4 C 99 % 992,2 hPa 0,0 l/m 0 min 0 min 370 W/m 16,1 km/h (3 Bft) 93,62 %
02.08.2023 12:32 18,6 C 18,9 C 14,4 C 99 % 992,1 hPa 0,0 l/m 0 min 0 min 333 W/m 12,9 km/h (3 Bft) 95,74 %
02.08.2023 12:34 18,7 C 19,4 C 15,0 C 99 % 992,1 hPa 0,0 l/m 0 min 0 min 340 W/m 12,9 km/h (3 Bft) 97,87 %
02.08.2023 12:36 18,8 C 20,0 C 15,0 C 99 % 992,0 hPa 0,0 l/m 2 min 0 min 426 W/m 12,9 km/h (3 Bft) 97,83 %
02.08.2023 12:38 18,9 C 20,0 C 15,0 C 99 % 992,0 hPa 0,0 l/m 2 min 0 min 470 W/m 12,9 km/h (3 Bft) 97,87 %
02.08.2023 12:40 19,1 C 20,6 C 15,6 C 99 % 992,0 hPa 0,0 l/m 2 min 0 min 421 W/m 12,9 km/h (3 Bft) 97,87 %
02.08.2023 12:42 19,2 C 20,0 C 15,6 C 99 % 991,9 hPa 0,0 l/m 0 min 0 min 348 W/m 16,1 km/h (3 Bft) 97,87 %
02.08.2023 12:44 19,2 C 20,0 C 15,6 C 99 % 991,9 hPa 0,0 l/m 0 min 0 min 309 W/m 9,7 km/h (2 Bft) 100,00 %
02.08.2023 12:46 19,3 C 20,0 C 15,6 C 99 % 991,9 hPa 0,0 l/m 0 min 0 min 265 W/m 16,1 km/h (3 Bft) 100,00 %
02.08.2023 12:48 19,3 C 20,0 C 15,0 C 99 % 991,9 hPa 0,0 l/m 0 min 0 min 245 W/m 16,1 km/h (3 Bft) 100,00 %
02.08.2023 12:50 19,3 C 20,0 C 15,0 C 99 % 992,0 hPa 0,0 l/m 0 min 0 min 247 W/m 16,1 km/h (3 Bft) 100,00 %
02.08.2023 12:52 19,3 C 20,0 C 15,0 C 99 % 991,9 hPa 0,0 l/m 0 min 0 min 290 W/m 6,4 km/h (2 Bft) 100,00 %
02.08.2023 12:54 19,3 C 20,0 C 15,6 C 99 % 991,8 hPa 0,0 l/m 0 min 0 min 279 W/m 3,2 km/h (1 Bft) 97,87 %
02.08.2023 12:56 19,4 C 20,0 C 15,6 C 99 % 991,8 hPa 0,0 l/m 0 min 0 min 284 W/m 12,9 km/h (3 Bft) 100,00 %
02.08.2023 12:58 19,4 C 20,0 C 15,6 C 99 % 991,7 hPa 0,0 l/m 0 min 0 min 371 W/m 19,3 km/h (3 Bft) 100,00 %
02.08.2023 13:00 19,4 C 20,0 C 15,0 C 99 % 991,8 hPa 0,0 l/m 0 min 0 min 317 W/m 25,7 km/h (4 Bft) 100,00 %
02.08.2023 13:02 19,3 C 19,4 C 15,0 C 99 % 991,7 hPa 0,0 l/m 0 min 0 min 228 W/m 12,9 km/h (3 Bft) 100,00 %
02.08.2023 13:04 19,3 C 19,4 C 15,0 C 99 % 991,6 hPa 0,0 l/m 0 min 0 min 198 W/m 16,1 km/h (3 Bft) 100,00 %
02.08.2023 13:06 19,3 C 19,4 C 15,0 C 99 % 991,6 hPa 0,0 l/m 0 min 0 min 249 W/m 19,3 km/h (3 Bft) 100,00 %
02.08.2023 13:08 19,4 C 19,4 C 15,0 C 99 % 991,6 hPa 0,0 l/m 0 min 0 min 204 W/m 12,9 km/h (3 Bft) 100,00 %
02.08.2023 13:10 19,3 C 19,4 C 15,0 C 99 % 991,5 hPa 0,0 l/m 0 min 0 min 139 W/m 6,4 km/h (2 Bft) 100,00 %
02.08.2023 13:12 19,3 C 19,4 C 15,0 C 99 % 991,5 hPa 0,0 l/m 0 min 0 min 101 W/m 16,1 km/h (3 Bft) 97,87 %
02.08.2023 13:14 19,4 C 19,4 C 15,0 C 99 % 991,5 hPa 0,0 l/m 0 min 0 min 138 W/m 9,7 km/h (2 Bft) 100,00 %
02.08.2023 13:16 19,4 C 19,4 C 15,0 C 99 % 991,4 hPa 0,0 l/m 0 min 0 min 219 W/m 16,1 km/h (3 Bft) 100,00 %
02.08.2023 13:18 19,4 C 19,4 C 15,0 C 99 % 991,3 hPa 0,0 l/m 0 min 0 min 273 W/m 16,1 km/h (3 Bft) 100,00 %
02.08.2023 13:20 19,5 C 19,4 C 15,0 C 99 % 991,2 hPa 0,0 l/m 0 min 0 min 233 W/m 9,7 km/h (2 Bft) 100,00 %
02.08.2023 13:22 19,6 C 20,0 C 15,6 C 99 % 991,1 hPa 0,0 l/m 0 min 0 min 262 W/m 6,4 km/h (2 Bft) 100,00 %
02.08.2023 13:24 19,6 C 20,0 C 15,6 C 99 % 991,0 hPa 0,0 l/m 0 min 0 min 175 W/m 6,4 km/h (2 Bft) 100,00 %
02.08.2023 13:26 19,6 C 19,4 C 15,6 C 99 % 990,9 hPa 0,0 l/m 0 min 0 min 136 W/m 6,4 km/h (2 Bft) 97,83 %
02.08.2023 13:28 19,7 C 19,4 C 15,0 C 99 % 990,9 hPa 0,0 l/m 0 min 0 min 76 W/m 12,9 km/h (3 Bft) 100,00 %
02.08.2023 13:30 19,7 C 19,4 C 15,0 C 99 % 991,0 hPa 0,0 l/m 0 min 0 min 46 W/m 6,4 km/h (2 Bft) 97,87 %
02.08.2023 13:32 19,7 C 18,9 C 15,0 C 98 % 991,2 hPa 1,0 l/m 0 min 2 min 31 W/m 16,1 km/h (3 Bft) 100,00 %
02.08.2023 13:34 19,7 C 18,9 C 15,0 C 98 % 991,2 hPa 0,2 l/m 0 min 2 min 25 W/m 6,4 km/h (2 Bft) 100,00 %
02.08.2023 13:36 19,7 C 18,3 C 15,0 C 98 % 991,1 hPa 0,2 l/m 0 min 2 min 43 W/m 6,4 km/h (2 Bft) 97,87 %
02.08.2023 13:38 19,7 C 18,3 C 15,0 C 98 % 991,1 hPa 0,2 l/m 0 min 2 min 92 W/m 6,4 km/h (2 Bft) 95,74 %
02.08.2023 13:40 19,7 C 18,9 C 15,0 C 98 % 990,9 hPa 0,0 l/m 0 min 0 min 151 W/m 6,4 km/h (2 Bft) 97,83 %
02.08.2023 13:42 19,7 C 18,9 C 15,0 C 98 % 990,7 hPa 0,0 l/m 0 min 0 min 141 W/m 12,9 km/h (3 Bft) 97,87 %
02.08.2023 13:44 19,7 C 18,9 C 15,6 C 98 % 990,6 hPa 0,0 l/m 0 min 2 min 220 W/m 6,4 km/h (2 Bft) 97,87 %
02.08.2023 13:46 19,8 C 18,9 C 15,6 C 99 % 990,8 hPa 0,0 l/m 0 min 2 min 143 W/m 6,4 km/h (2 Bft) 97,87 %
02.08.2023 13:48 19,8 C 19,4 C 15,6 C 99 % 990,6 hPa 0,0 l/m 0 min 2 min 169 W/m 3,2 km/h (1 Bft) 97,87 %
02.08.2023 13:50 19,9 C 18,9 C 15,6 C 99 % 990,8 hPa 0,0 l/m 0 min 2 min 146 W/m 3,2 km/h (1 Bft) 95,74 %
02.08.2023 13:52 19,9 C 19,4 C 15,6 C 99 % 990,7 hPa 0,0 l/m 0 min 2 min 210 W/m 6,4 km/h (2 Bft) 95,74 %
02.08.2023 13:54 19,9 C 19,4 C 15,6 C 99 % 990,6 hPa 0,0 l/m 0 min 0 min 214 W/m 6,4 km/h (2 Bft) 93,48 %
02.08.2023 13:56 19,9 C 19,4 C 15,6 C 98 % 990,5 hPa 0,0 l/m 0 min 0 min 199 W/m 3,2 km/h (1 Bft) 93,62 %
02.08.2023 13:58 20,0 C 20,0 C 15,6 C 99 % 990,5 hPa 0,0 l/m 0 min 0 min 265 W/m 3,2 km/h (1 Bft) 95,74 %
02.08.2023 14:00 20,1 C 20,0 C 16,1 C 99 % 990,2 hPa 0,0 l/m 0 min 0 min 326 W/m 3,2 km/h (1 Bft) 93,62 %
02.08.2023 14:02 20,1 C 20,6 C 16,1 C 99 % 990,2 hPa 0,0 l/m 0 min 0 min 261 W/m 3,2 km/h (1 Bft) 93,62 %
02.08.2023 14:04 20,2 C 20,0 C 16,1 C 99 % 990,3 hPa 0,0 l/m 0 min 0 min 122 W/m 6,4 km/h (2 Bft) 95,83 %
02.08.2023 14:06 20,2 C 20,0 C 15,6 C 99 % 990,2 hPa 0,0 l/m 0 min 0 min 108 W/m 6,4 km/h (2 Bft) 95,74 %
02.08.2023 14:08 20,2 C 20,0 C 15,6 C 99 % 990,2 hPa 0,0 l/m 0 min 0 min 144 W/m 3,2 km/h (1 Bft) 97,87 %
02.08.2023 14:10 20,1 C 19,4 C 15,6 C 99 % 990,1 hPa 0,0 l/m 0 min 0 min 116 W/m 9,7 km/h (2 Bft) 97,87 %
02.08.2023 14:12 20,1 C 19,4 C 15,6 C 98 % 990,0 hPa 0,0 l/m 0 min 0 min 127 W/m 6,4 km/h (2 Bft) 95,74 %
02.08.2023 14:14 20,1 C 19,4 C 15,6 C 98 % 989,8 hPa 0,0 l/m 0 min 0 min 215 W/m 6,4 km/h (2 Bft) 95,74 %
02.08.2023 14:16 20,1 C 19,4 C 15,6 C 98 % 989,8 hPa 0,0 l/m 0 min 0 min 167 W/m 3,2 km/h (1 Bft) 97,83 %
02.08.2023 14:18 20,1 C 19,4 C 15,6 C 98 % 989,8 hPa 0,0 l/m 0 min 0 min 161 W/m 3,2 km/h (1 Bft) 95,74 %
02.08.2023 14:20 20,1 C 19,4 C 15,6 C 98 % 989,8 hPa 0,0 l/m 0 min 2 min 127 W/m 6,4 km/h (2 Bft) 97,87 %
02.08.2023 14:22 20,1 C 20,0 C 15,6 C 99 % 989,8 hPa 0,0 l/m 0 min 2 min 177 W/m 9,7 km/h (2 Bft) 97,87 %
02.08.2023 14:24 20,2 C 20,0 C 16,1 C 99 % 989,8 hPa 0,0 l/m 0 min 2 min 208 W/m 19,3 km/h (3 Bft) 97,87 %
02.08.2023 14:26 20,2 C 20,0 C 15,6 C 99 % 990,3 hPa 0,2 l/m 0 min 2 min 180 W/m 22,5 km/h (4 Bft) 97,87 %
02.08.2023 14:28 20,1 C 18,9 C 15,6 C 98 % 990,6 hPa 0,4 l/m 0 min 2 min 142 W/m 45,1 km/h (6 Bft) 97,87 %
02.08.2023 14:30 19,9 C 18,3 C 15,0 C 98 % 990,5 hPa 0,4 l/m 0 min 2 min 150 W/m 51,5 km/h (7 Bft) 97,83 %
02.08.2023 14:32 19,9 C 18,3 C 15,6 C 98 % 990,6 hPa 0,0 l/m 0 min 2 min 274 W/m 25,7 km/h (4 Bft) 97,87 %
02.08.2023 14:34 19,9 C 18,9 C 15,6 C 98 % 990,6 hPa 0,0 l/m 0 min 2 min 328 W/m 32,2 km/h (5 Bft) 95,74 %
02.08.2023 14:36 19,9 C 18,9 C 15,6 C 98 % 990,6 hPa 0,0 l/m 0 min 0 min 341 W/m 32,2 km/h (5 Bft) 95,74 %
02.08.2023 14:38 20,0 C 19,4 C 15,6 C 98 % 990,3 hPa 0,0 l/m 0 min 0 min 367 W/m 29,0 km/h (5 Bft) 95,74 %
02.08.2023 14:40 20,1 C 19,4 C 16,1 C 98 % 990,6 hPa 0,0 l/m 0 min 0 min 376 W/m 19,3 km/h (3 Bft) 95,74 %
02.08.2023 14:42 20,2 C 20,0 C 16,1 C 98 % 990,7 hPa 0,0 l/m 0 min 0 min 367 W/m 22,5 km/h (4 Bft) 95,74 %
02.08.2023 14:44 20,3 C 20,0 C 16,1 C 98 % 990,8 hPa 0,0 l/m 0 min 0 min 350 W/m 16,1 km/h (3 Bft) 95,65 %
02.08.2023 14:46 20,3 C 20,0 C 15,6 C 98 % 990,7 hPa 0,0 l/m 0 min 0 min 178 W/m 22,5 km/h (4 Bft) 100,00 %
02.08.2023 14:48 20,3 C 20,0 C 15,6 C 98 % 990,8 hPa 0,0 l/m 0 min 0 min 234 W/m 22,5 km/h (4 Bft) 95,74 %
02.08.2023 14:50 20,3 C 20,6 C 15,6 C 98 % 990,7 hPa 0,0 l/m 0 min 0 min 365 W/m 19,3 km/h (3 Bft) 97,87 %
02.08.2023 14:52 20,3 C 21,1 C 15,6 C 97 % 990,7 hPa 0,0 l/m 0 min 0 min 338 W/m 19,3 km/h (3 Bft) 97,87 %
02.08.2023 14:54 20,4 C 21,7 C 15,6 C 97 % 990,7 hPa 0,0 l/m 0 min 0 min 338 W/m 19,3 km/h (3 Bft) 97,87 %
02.08.2023 14:56 20,5 C 22,8 C 16,1 C 97 % 990,7 hPa 0,0 l/m 2 min 0 min 406 W/m 16,1 km/h (3 Bft) 97,83 %
02.08.2023 14:58 20,6 C 23,3 C 15,6 C 97 % 990,7 hPa 0,0 l/m 2 min 0 min 893 W/m 22,5 km/h (4 Bft) 97,87 %
02.08.2023 15:00 20,7 C 22,2 C 15,6 C 96 % 990,6 hPa 0,0 l/m 2 min 0 min 914 W/m 16,1 km/h (3 Bft) 97,87 %
02.08.2023 15:02 20,7 C 22,8 C 15,6 C 96 % 990,6 hPa 0,0 l/m 0 min 0 min 315 W/m 22,5 km/h (4 Bft) 97,87 %
02.08.2023 15:04 20,9 C 23,3 C 16,1 C 96 % 990,5 hPa 0,0 l/m 0 min 0 min 315 W/m 12,9 km/h (3 Bft) 93,62 %
02.08.2023 15:06 21,0 C 21,7 C 15,6 C 95 % 990,6 hPa 0,0 l/m 0 min 0 min 249 W/m 16,1 km/h (3 Bft) 97,92 %
02.08.2023 15:08 21,1 C 21,1 C 16,1 C 95 % 990,5 hPa 0,0 l/m 0 min 0 min 286 W/m 25,7 km/h (4 Bft) 97,87 %
02.08.2023 15:10 21,1 C 21,1 C 15,6 C 94 % 990,5 hPa 0,0 l/m 0 min 0 min 269 W/m 19,3 km/h (3 Bft) 97,83 %
02.08.2023 15:12 21,1 C 21,1 C 16,1 C 94 % 990,6 hPa 0,0 l/m 2 min 0 min 405 W/m 12,9 km/h (3 Bft) 97,87 %
02.08.2023 15:14 21,2 C 21,1 C 16,1 C 94 % 990,6 hPa 0,0 l/m 2 min 0 min 402 W/m 16,1 km/h (3 Bft) 97,87 %
02.08.2023 15:16 21,2 C 21,1 C 16,1 C 93 % 990,6 hPa 0,0 l/m 0 min 0 min 279 W/m 19,3 km/h (3 Bft) 97,87 %
02.08.2023 15:18 21,3 C 21,1 C 16,1 C 93 % 990,6 hPa 0,0 l/m 0 min 0 min 306 W/m 19,3 km/h (3 Bft) 97,87 %
02.08.2023 15:20 21,3 C 21,7 C 15,6 C 92 % 990,7 hPa 0,0 l/m 0 min 0 min 317 W/m 25,7 km/h (4 Bft) 95,74 %
02.08.2023 15:22 21,4 C 22,8 C 16,1 C 92 % 990,7 hPa 0,0 l/m 0 min 0 min 341 W/m 12,9 km/h (3 Bft) 97,83 %
02.08.2023 15:24 21,6 C 23,9 C 16,1 C 92 % 990,6 hPa 0,0 l/m 0 min 0 min 341 W/m 19,3 km/h (3 Bft) 100,00 %
02.08.2023 15:26 21,7 C 23,9 C 16,1 C 92 % 990,7 hPa 0,0 l/m 0 min 0 min 341 W/m 16,1 km/h (3 Bft) 100,00 %
02.08.2023 15:28 21,7 C 24,4 C 15,6 C 90 % 991,0 hPa 0,0 l/m 0 min 0 min 341 W/m 22,5 km/h (4 Bft) 100,00 %
02.08.2023 15:30 21,8 C 23,9 C 16,1 C 90 % 990,8 hPa 0,0 l/m 0 min 0 min 339 W/m 12,9 km/h (3 Bft) 100,00 %
02.08.2023 15:32 21,9 C 23,3 C 15,6 C 88 % 990,7 hPa 0,0 l/m 0 min 0 min 289 W/m 25,7 km/h (4 Bft) 97,87 %
02.08.2023 15:34 21,9 C 22,2 C 15,6 C 87 % 990,7 hPa 0,0 l/m 0 min 0 min 250 W/m 22,5 km/h (4 Bft) 95,74 %
02.08.2023 15:36 21,9 C 21,7 C 15,6 C 86 % 990,8 hPa 0,0 l/m 0 min 0 min 141 W/m 16,1 km/h (3 Bft) 97,83 %
02.08.2023 15:38 21,8 C 21,1 C 15,6 C 87 % 990,8 hPa 0,0 l/m 0 min 0 min 108 W/m 16,1 km/h (3 Bft) 97,87 %
02.08.2023 15:40 21,8 C 21,1 C 15,0 C 86 % 990,8 hPa 0,0 l/m 0 min 0 min 79 W/m 16,1 km/h (3 Bft) 97,87 %
02.08.2023 15:42 21,7 C 21,1 C 15,6 C 87 % 990,9 hPa 0,0 l/m 0 min 2 min 81 W/m 16,1 km/h (3 Bft) 95,74 %
02.08.2023 15:44 21,6 C 20,6 C 15,6 C 87 % 990,9 hPa 0,0 l/m 0 min 2 min 104 W/m 16,1 km/h (3 Bft) 97,87 %
02.08.2023 15:46 21,6 C 20,6 C 15,6 C 88 % 990,9 hPa 0,0 l/m 0 min 0 min 144 W/m 16,1 km/h (3 Bft) 97,87 %
02.08.2023 15:48 21,6 C 21,1 C 15,6 C 88 % 990,9 hPa 0,0 l/m 0 min 0 min 152 W/m 19,3 km/h (3 Bft) 97,87 %
02.08.2023 15:50 21,5 C 21,1 C 16,1 C 88 % 990,7 hPa 0,0 l/m 0 min 0 min 281 W/m 9,7 km/h (2 Bft) 97,87 %
02.08.2023 15:52 21,5 C 21,1 C 16,1 C 88 % 990,6 hPa 0,0 l/m 0 min 0 min 276 W/m 12,9 km/h (3 Bft) 97,83 %
02.08.2023 15:54 21,5 C 21,7 C 16,1 C 88 % 990,6 hPa 0,0 l/m 0 min 0 min 267 W/m 9,7 km/h (2 Bft) 97,87 %
02.08.2023 15:56 21,4 C 21,1 C 16,7 C 88 % 990,6 hPa 0,0 l/m 0 min 0 min 277 W/m 29,0 km/h (5 Bft) 97,87 %
02.08.2023 15:58 21,3 C 21,1 C 16,1 C 86 % 990,6 hPa 0,2 l/m 2 min 0 min 353 W/m 22,5 km/h (4 Bft) 95,74 %
02.08.2023 16:00 21,1 C 20,6 C 16,1 C 86 % 990,7 hPa 0,0 l/m 0 min 0 min 275 W/m 19,3 km/h (3 Bft) 97,87 %
02.08.2023 16:02 21,0 C 21,7 C 16,1 C 85 % 990,7 hPa 0,0 l/m 0 min 0 min 299 W/m 22,5 km/h (4 Bft) 97,87 %
02.08.2023 16:04 21,0 C 22,2 C 16,1 C 85 % 990,6 hPa 0,0 l/m 0 min 0 min 299 W/m 22,5 km/h (4 Bft) 97,83 %
02.08.2023 16:06 21,1 C 23,9 C 16,1 C 85 % 990,6 hPa 0,0 l/m 2 min 0 min 627 W/m 16,1 km/h (3 Bft) 95,74 %
02.08.2023 16:08 21,2 C 24,4 C 16,1 C 86 % 990,7 hPa 0,0 l/m 2 min 0 min 836 W/m 12,9 km/h (3 Bft) 100,00 %
02.08.2023 16:10 21,3 C 24,4 C 16,1 C 85 % 990,7 hPa 0,0 l/m 2 min 0 min 791 W/m 16,1 km/h (3 Bft) 100,00 %
02.08.2023 16:12 21,4 C 25,0 C 16,7 C 85 % 990,7 hPa 0,0 l/m 2 min 0 min 822 W/m 12,9 km/h (3 Bft) 100,00 %
02.08.2023 16:14 21,6 C 24,4 C 16,7 C 85 % 990,6 hPa 0,0 l/m 2 min 0 min 749 W/m 16,1 km/h (3 Bft) 100,00 %
02.08.2023 16:16 21,8 C 23,9 C 16,7 C 85 % 990,7 hPa 0,0 l/m 2 min 0 min 345 W/m 12,9 km/h (3 Bft) 100,00 %
02.08.2023 16:18 21,8 C 22,8 C 16,7 C 84 % 990,7 hPa 0,0 l/m 0 min 0 min 303 W/m 16,1 km/h (3 Bft) 100,00 %
02.08.2023 16:20 21,9 C 22,8 C 16,7 C 83 % 990,7 hPa 0,0 l/m 0 min 0 min 268 W/m 12,9 km/h (3 Bft) 100,00 %
02.08.2023 16:22 22,0 C 23,3 C 17,2 C 84 % 990,6 hPa 0,0 l/m 2 min 0 min 422 W/m 12,9 km/h (3 Bft) 97,87 %
02.08.2023 16:24 22,1 C 23,9 C 17,2 C 84 % 990,6 hPa 0,0 l/m 2 min 0 min 599 W/m 9,7 km/h (2 Bft) 100,00 %
02.08.2023 16:26 22,2 C 25,0 C 17,2 C 83 % 990,7 hPa 0,0 l/m 2 min 0 min 740 W/m 22,5 km/h (4 Bft) 100,00 %
02.08.2023 16:28 22,4 C 25,6 C 17,2 C 82 % 990,6 hPa 0,0 l/m 2 min 0 min 729 W/m 16,1 km/h (3 Bft) 97,87 %
02.08.2023 16:30 22,6 C 25,0 C 17,2 C 81 % 990,6 hPa 0,0 l/m 2 min 0 min 734 W/m 25,7 km/h (4 Bft) 100,00 %
02.08.2023 16:32 22,6 C 25,0 C 17,2 C 78 % 990,6 hPa 0,0 l/m 2 min 0 min 741 W/m 22,5 km/h (4 Bft) 100,00 %
02.08.2023 16:34 22,7 C 26,1 C 17,2 C 78 % 990,6 hPa 0,0 l/m 2 min 0 min 691 W/m 9,7 km/h (2 Bft) 100,00 %
02.08.2023 16:36 22,8 C 26,1 C 17,2 C 78 % 990,5 hPa 0,0 l/m 2 min 0 min 705 W/m 19,3 km/h (3 Bft) 100,00 %
02.08.2023 16:38 22,9 C 25,6 C 17,2 C 76 % 990,5 hPa 0,0 l/m 2 min 0 min 722 W/m 29,0 km/h (5 Bft) 100,00 %
02.08.2023 16:40 22,9 C 25,0 C 17,2 C 76 % 990,5 hPa 0,0 l/m 2 min 0 min 697 W/m 16,1 km/h (3 Bft) 97,87 %
02.08.2023 16:42 23,1 C 25,6 C 17,8 C 76 % 990,2 hPa 0,0 l/m 2 min 0 min 687 W/m 32,2 km/h (5 Bft) 100,00 %
02.08.2023 16:44 23,1 C 26,1 C 17,8 C 76 % 990,3 hPa 0,0 l/m 2 min 0 min 686 W/m 12,9 km/h (3 Bft) 100,00 %
02.08.2023 16:46 23,2 C 26,1 C 17,8 C 75 % 990,4 hPa 0,0 l/m 2 min 0 min 682 W/m 19,3 km/h (3 Bft) 97,14 %
02.08.2023 16:48 23,2 C 26,7 C 17,8 C 76 % 990,2 hPa 0,0 l/m 2 min 0 min 677 W/m 22,5 km/h (4 Bft) 100,00 %
02.08.2023 16:50 23,3 C 26,7 C 17,8 C 75 % 990,2 hPa 0,0 l/m 2 min 0 min 674 W/m 16,1 km/h (3 Bft) 100,00 %
02.08.2023 16:52 23,3 C 27,2 C 17,8 C 75 % 990,1 hPa 0,0 l/m 2 min 0 min 671 W/m 12,9 km/h (3 Bft) 100,00 %
02.08.2023 16:54 23,5 C 27,8 C 18,3 C 76 % 990,0 hPa 0,0 l/m 2 min 0 min 669 W/m 12,9 km/h (3 Bft) 100,00 %
02.08.2023 16:56 23,6 C 27,2 C 18,3 C 74 % 990,1 hPa 0,0 l/m 2 min 0 min 668 W/m 6,4 km/h (2 Bft) 98,04 %
02.08.2023 16:58 23,7 C 27,2 C 18,9 C 75 % 990,2 hPa 0,0 l/m 2 min 0 min 639 W/m 9,7 km/h (2 Bft) 97,87 %
02.08.2023 17:00 23,8 C 26,1 C 18,9 C 75 % 990,1 hPa 0,0 l/m 2 min 0 min 305 W/m 9,7 km/h (2 Bft) 100,00 %
02.08.2023 17:02 23,8 C 24,4 C 18,9 C 74 % 990,3 hPa 0,0 l/m 0 min 0 min 170 W/m 12,9 km/h (3 Bft) 95,65 %
02.08.2023 17:04 23,7 C 23,9 C 18,9 C 73 % 990,3 hPa 0,0 l/m 0 min 0 min 205 W/m 16,1 km/h (3 Bft) 95,92 %
02.08.2023 17:06 23,6 C 23,3 C 18,9 C 73 % 990,2 hPa 0,0 l/m 0 min 0 min 187 W/m 12,9 km/h (3 Bft) 94,92 %
02.08.2023 17:08 23,5 C 23,3 C 18,9 C 74 % 990,2 hPa 0,0 l/m 0 min 0 min 128 W/m 12,9 km/h (3 Bft) 100,00 %
02.08.2023 17:10 23,4 C 22,8 C 18,3 C 74 % 990,3 hPa 0,0 l/m 0 min 0 min 115 W/m 16,1 km/h (3 Bft) 95,74 %
02.08.2023 17:12 23,3 C 22,2 C 18,3 C 74 % 990,5 hPa 0,0 l/m 0 min 0 min 82 W/m 22,5 km/h (4 Bft) 97,83 %
02.08.2023 17:14 23,2 C 22,2 C 18,3 C 74 % 990,6 hPa 0,0 l/m 0 min 0 min 68 W/m 19,3 km/h (3 Bft) 95,74 %
02.08.2023 17:16 22,9 C 21,7 C 17,8 C 74 % 990,6 hPa 0,0 l/m 0 min 0 min 66 W/m 29,0 km/h (5 Bft) 95,74 %
02.08.2023 17:18 22,6 C 21,1 C 17,8 C 76 % 990,8 hPa 0,0 l/m 0 min 0 min 67 W/m 35,4 km/h (5 Bft) 95,74 %
02.08.2023 17:20 22,2 C 20,6 C 17,2 C 76 % 990,9 hPa 0,0 l/m 0 min 0 min 69 W/m 22,5 km/h (4 Bft) 95,74 %
02.08.2023 17:22 21,9 C 20,6 C 17,2 C 77 % 991,0 hPa 0,0 l/m 0 min 0 min 66 W/m 25,7 km/h (4 Bft) 93,62 %
02.08.2023 17:24 21,7 C 20,6 C 17,2 C 78 % 991,0 hPa 0,0 l/m 0 min 0 min 67 W/m 19,3 km/h (3 Bft) 93,48 %
02.08.2023 17:26 21,6 C 20,0 C 16,7 C 79 % 990,9 hPa 0,0 l/m 0 min 2 min 61 W/m 19,3 km/h (3 Bft) 93,62 %
02.08.2023 17:28 21,3 C 19,4 C 15,6 C 81 % 991,0 hPa 0,0 l/m 0 min 2 min 51 W/m 16,1 km/h (3 Bft) 95,74 %
02.08.2023 17:30 21,1 C 19,4 C 15,0 C 82 % 990,9 hPa 0,0 l/m 0 min 2 min 43 W/m 16,1 km/h (3 Bft) 93,62 %
02.08.2023 17:32 20,9 C 18,9 C 14,4 C 84 % 990,9 hPa 0,2 l/m 0 min 2 min 48 W/m 12,9 km/h (3 Bft) 95,74 %
02.08.2023 17:34 20,7 C 18,9 C 13,9 C 85 % 991,0 hPa 0,2 l/m 0 min 2 min 59 W/m 19,3 km/h (3 Bft) 95,74 %
02.08.2023 17:36 20,4 C 18,3 C 13,3 C 85 % 991,0 hPa 0,4 l/m 0 min 2 min 65 W/m 6,4 km/h (2 Bft) 93,62 %
02.08.2023 17:38 20,3 C 18,3 C 13,9 C 86 % 991,1 hPa 0,0 l/m 0 min 2 min 76 W/m 3,2 km/h (1 Bft) 91,30 %
02.08.2023 17:40 20,2 C 18,9 C 13,9 C 86 % 991,0 hPa 0,0 l/m 0 min 0 min 115 W/m 3,2 km/h (1 Bft) 93,62 %
02.08.2023 17:42 20,1 C 18,9 C 13,9 C 87 % 991,0 hPa 0,0 l/m 0 min 0 min 154 W/m 0,0 km/h (0 Bft) 91,49 %
02.08.2023 17:44 20,1 C 20,0 C 13,9 C 88 % 991,0 hPa 0,0 l/m 0 min 0 min 244 W/m 6,4 km/h (2 Bft) 93,62 %
02.08.2023 17:46 20,1 C 22,2 C 14,4 C 89 % 991,0 hPa 0,0 l/m 2 min 2 min 494 W/m 3,2 km/h (1 Bft) 93,62 %
02.08.2023 17:48 20,2 C 23,9 C 14,4 C 90 % 991,1 hPa 0,0 l/m 2 min 0 min 624 W/m 0,0 km/h (0 Bft) 93,62 %
02.08.2023 17:50 20,3 C 25,0 C 15,0 C 90 % 991,0 hPa 0,0 l/m 2 min 0 min 547 W/m 0,0 km/h (0 Bft) 93,48 %
02.08.2023 17:52 20,4 C 25,6 C 15,0 C 91 % 991,0 hPa 0,0 l/m 2 min 0 min 521 W/m 9,7 km/h (2 Bft) 93,62 %
02.08.2023 17:54 20,4 C 25,0 C 15,0 C 91 % 991,0 hPa 0,0 l/m 2 min 0 min 423 W/m 6,4 km/h (2 Bft) 93,62 %
02.08.2023 17:56 20,5 C 24,4 C 15,0 C 91 % 991,0 hPa 0,0 l/m 0 min 0 min 137 W/m 6,4 km/h (2 Bft) 95,74 %
02.08.2023 17:58 20,5 C 23,9 C 15,0 C 90 % 991,1 hPa 0,0 l/m 0 min 0 min 127 W/m 3,2 km/h (1 Bft) 95,74 %
02.08.2023 18:00 20,6 C 23,3 C 15,0 C 91 % 991,1 hPa 0,0 l/m 0 min 0 min 151 W/m 3,2 km/h (1 Bft) 97,87 %
02.08.2023 18:02 20,6 C 23,3 C 15,0 C 91 % 991,1 hPa 0,0 l/m 0 min 0 min 208 W/m 3,2 km/h (1 Bft) 95,74 %
02.08.2023 18:04 20,7 C 24,4 C 15,0 C 91 % 991,1 hPa 0,0 l/m 2 min 0 min 412 W/m 3,2 km/h (1 Bft) 97,83 %
02.08.2023 18:08 20,9 C 25,6 C 15,6 C 91 % 991,1 hPa 0,0 l/m 4 min 0 min 501 W/m 6,4 km/h (2 Bft) 96,91 %
02.08.2023 18:10 20,9 C 25,0 C 15,0 C 90 % 991,1 hPa 0,0 l/m 2 min 0 min 492 W/m 12,9 km/h (3 Bft) 97,87 %
02.08.2023 18:12 21,1 C 25,0 C 15,0 C 86 % 991,0 hPa 0,0 l/m 2 min 0 min 496 W/m 12,9 km/h (3 Bft) 95,74 %
02.08.2023 18:14 21,2 C 25,6 C 15,0 C 85 % 991,1 hPa 0,0 l/m 2 min 0 min 498 W/m 12,9 km/h (3 Bft) 97,87 %
02.08.2023 18:16 21,3 C 25,0 C 14,4 C 82 % 991,0 hPa 0,0 l/m 2 min 0 min 475 W/m 19,3 km/h (3 Bft) 100,00 %
02.08.2023 18:18 21,5 C 23,3 C 14,4 C 79 % 991,1 hPa 0,0 l/m 2 min 0 min 223 W/m 22,5 km/h (4 Bft) 100,00 %
02.08.2023 18:20 21,5 C 23,3 C 13,9 C 78 % 991,0 hPa 0,0 l/m 0 min 0 min 126 W/m 16,1 km/h (3 Bft) 100,00 %
02.08.2023 18:22 21,6 C 23,3 C 13,9 C 77 % 991,0 hPa 0,0 l/m 2 min 0 min 264 W/m 16,1 km/h (3 Bft) 100,00 %
02.08.2023 18:24 21,6 C 23,9 C 13,9 C 77 % 991,0 hPa 0,0 l/m 2 min 0 min 264 W/m 12,9 km/h (3 Bft) 100,00 %
02.08.2023 18:26 21,7 C 23,3 C 13,9 C 77 % 991,0 hPa 0,0 l/m 2 min 0 min 226 W/m 16,1 km/h (3 Bft) 100,00 %
02.08.2023 18:28 21,7 C 23,3 C 13,9 C 76 % 991,0 hPa 0,0 l/m 2 min 0 min 244 W/m 6,4 km/h (2 Bft) 100,00 %
02.08.2023 18:30 21,7 C 22,8 C 13,9 C 77 % 990,9 hPa 0,0 l/m 0 min 0 min 200 W/m 12,9 km/h (3 Bft) 100,00 %
02.08.2023 18:32 21,7 C 22,2 C 13,9 C 76 % 990,9 hPa 0,0 l/m 0 min 0 min 163 W/m 16,1 km/h (3 Bft) 100,00 %
02.08.2023 18:34 21,7 C 21,7 C 13,9 C 75 % 991,0 hPa 0,0 l/m 0 min 0 min 187 W/m 16,1 km/h (3 Bft) 100,00 %
02.08.2023 18:36 21,6 C 22,2 C 13,9 C 75 % 991,0 hPa 0,0 l/m 2 min 0 min 251 W/m 16,1 km/h (3 Bft) 100,00 %
02.08.2023 18:38 21,6 C 21,7 C 13,9 C 75 % 990,9 hPa 0,0 l/m 2 min 0 min 220 W/m 19,3 km/h (3 Bft) 100,00 %
02.08.2023 18:40 21,6 C 21,7 C 13,9 C 74 % 990,9 hPa 0,0 l/m 0 min 0 min 186 W/m 22,5 km/h (4 Bft) 100,00 %
02.08.2023 18:42 21,6 C 21,7 C 13,9 C 75 % 990,9 hPa 0,0 l/m 0 min 0 min 181 W/m 22,5 km/h (4 Bft) 100,00 %
02.08.2023 18:44 21,6 C 22,2 C 13,9 C 73 % 991,0 hPa 0,0 l/m 2 min 0 min 187 W/m 19,3 km/h (3 Bft) 100,00 %
02.08.2023 18:46 21,6 C 22,8 C 13,9 C 73 % 990,9 hPa 0,0 l/m 2 min 0 min 232 W/m 16,1 km/h (3 Bft) 100,00 %
02.08.2023 18:48 21,7 C 23,9 C 13,9 C 75 % 990,9 hPa 0,0 l/m 2 min 0 min 358 W/m 12,9 km/h (3 Bft) 100,00 %
02.08.2023 18:50 21,7 C 25,0 C 14,4 C 74 % 990,9 hPa 0,0 l/m 2 min 0 min 468 W/m 9,7 km/h (2 Bft) 100,00 %
02.08.2023 18:52 21,9 C 25,0 C 14,4 C 75 % 990,9 hPa 0,0 l/m 2 min 0 min 419 W/m 22,5 km/h (4 Bft) 97,87 %
02.08.2023 18:54 22,0 C 24,4 C 14,4 C 72 % 991,0 hPa 0,0 l/m 2 min 0 min 281 W/m 19,3 km/h (3 Bft) 97,87 %
02.08.2023 18:56 22,1 C 25,0 C 14,4 C 72 % 990,9 hPa 0,0 l/m 2 min 0 min 304 W/m 16,1 km/h (3 Bft) 100,00 %
02.08.2023 18:58 22,1 C 23,3 C 14,4 C 72 % 991,0 hPa 0,0 l/m 2 min 0 min 211 W/m 29,0 km/h (5 Bft) 100,00 %
02.08.2023 19:00 22,2 C 22,8 C 15,0 C 72 % 991,0 hPa 0,0 l/m 0 min 0 min 143 W/m 6,4 km/h (2 Bft) 100,00 %
02.08.2023 19:02 22,2 C 22,2 C 16,1 C 72 % 991,1 hPa 0,0 l/m 0 min 0 min 144 W/m 6,4 km/h (2 Bft) 100,00 %
02.08.2023 19:04 22,2 C 22,2 C 16,7 C 73 % 991,2 hPa 0,0 l/m 0 min 0 min 139 W/m 9,7 km/h (2 Bft) 100,00 %
02.08.2023 19:06 22,1 C 21,7 C 16,7 C 73 % 991,3 hPa 0,0 l/m 0 min 0 min 124 W/m 19,3 km/h (3 Bft) 100,00 %
02.08.2023 19:08 22,1 C 21,7 C 17,2 C 73 % 991,3 hPa 0,0 l/m 0 min 0 min 107 W/m 12,9 km/h (3 Bft) 100,00 %
02.08.2023 19:10 22,1 C 21,7 C 17,2 C 72 % 991,4 hPa 0,0 l/m 0 min 0 min 104 W/m 16,1 km/h (3 Bft) 100,00 %
02.08.2023 19:12 21,9 C 21,1 C 17,2 C 72 % 991,4 hPa 0,0 l/m 0 min 0 min 99 W/m 12,9 km/h (3 Bft) 100,00 %
02.08.2023 19:14 21,9 C 21,1 C 17,2 C 73 % 991,4 hPa 0,0 l/m 0 min 0 min 88 W/m 9,7 km/h (2 Bft) 100,00 %
02.08.2023 19:16 21,9 C 21,1 C 17,2 C 72 % 991,5 hPa 0,0 l/m 0 min 0 min 76 W/m 16,1 km/h (3 Bft) 100,00 %
02.08.2023 19:18 21,8 C 21,1 C 17,2 C 73 % 991,4 hPa 0,0 l/m 0 min 0 min 71 W/m 12,9 km/h (3 Bft) 100,00 %
02.08.2023 19:20 21,8 C 21,1 C 16,7 C 74 % 991,4 hPa 0,0 l/m 0 min 0 min 63 W/m 25,7 km/h (4 Bft) 100,00 %
02.08.2023 19:22 21,7 C 21,1 C 16,7 C 73 % 991,5 hPa 0,0 l/m 0 min 0 min 43 W/m 25,7 km/h (4 Bft) 100,00 %
02.08.2023 19:24 21,7 C 20,6 C 16,7 C 72 % 991,5 hPa 0,0 l/m 0 min 0 min 45 W/m 12,9 km/h (3 Bft) 100,00 %
02.08.2023 19:26 21,6 C 20,6 C 16,7 C 72 % 991,5 hPa 0,0 l/m 0 min 0 min 31 W/m 12,9 km/h (3 Bft) 100,00 %
02.08.2023 19:28 21,5 C 20,6 C 16,7 C 72 % 991,7 hPa 0,0 l/m 0 min 2 min 14 W/m 19,3 km/h (3 Bft) 100,00 %
02.08.2023 19:30 21,4 C 20,0 C 16,1 C 73 % 991,7 hPa 0,0 l/m 0 min 2 min 8 W/m 19,3 km/h (3 Bft) 100,00 %
02.08.2023 19:32 21,3 C 19,4 C 14,4 C 74 % 992,0 hPa 0,0 l/m 0 min 2 min 6 W/m 25,7 km/h (4 Bft) 100,00 %
02.08.2023 19:34 20,9 C 18,9 C 13,3 C 77 % 992,2 hPa 0,2 l/m 0 min 2 min 6 W/m 32,2 km/h (5 Bft) 100,00 %
02.08.2023 19:36 20,4 C 16,7 C 12,8 C 79 % 992,5 hPa 0,4 l/m 0 min 2 min 16 W/m 25,7 km/h (4 Bft) 100,00 %
02.08.2023 19:38 19,8 C 16,1 C 12,2 C 82 % 992,5 hPa 0,2 l/m 0 min 2 min 26 W/m 29,0 km/h (5 Bft) 97,87 %
02.08.2023 19:40 19,3 C 16,1 C 12,2 C 84 % 992,7 hPa 0,2 l/m 0 min 2 min 31 W/m 16,1 km/h (3 Bft) 100,00 %
02.08.2023 19:42 18,9 C 16,1 C 12,2 C 85 % 992,5 hPa 0,0 l/m 0 min 2 min 36 W/m 12,9 km/h (3 Bft) 97,87 %
02.08.2023 19:44 18,7 C 16,1 C 12,2 C 86 % 992,3 hPa 0,0 l/m 0 min 2 min 37 W/m 12,9 km/h (3 Bft) 97,87 %
02.08.2023 19:46 18,4 C 16,1 C 12,2 C 87 % 992,3 hPa 0,2 l/m 0 min 2 min 35 W/m 22,5 km/h (4 Bft) 95,74 %
02.08.2023 19:48 18,3 C 16,1 C 12,2 C 88 % 992,2 hPa 0,0 l/m 0 min 2 min 37 W/m 19,3 km/h (3 Bft) 97,83 %
02.08.2023 19:50 18,1 C 16,1 C 12,2 C 88 % 992,2 hPa 0,0 l/m 0 min 2 min 48 W/m 16,1 km/h (3 Bft) 93,62 %
02.08.2023 19:52 18,0 C 16,1 C 12,2 C 89 % 992,1 hPa 0,0 l/m 0 min 2 min 63 W/m 22,5 km/h (4 Bft) 97,87 %
02.08.2023 19:54 17,9 C 16,1 C 12,2 C 89 % 992,2 hPa 0,0 l/m 0 min 2 min 78 W/m 16,1 km/h (3 Bft) 97,87 %
02.08.2023 19:56 17,8 C 16,1 C 12,2 C 89 % 992,2 hPa 0,0 l/m 0 min 2 min 93 W/m 12,9 km/h (3 Bft) 97,87 %
02.08.2023 19:58 17,8 C 16,1 C 12,2 C 90 % 992,1 hPa 0,0 l/m 2 min 2 min 97 W/m 22,5 km/h (4 Bft) 93,62 %
02.08.2023 20:00 17,8 C 16,1 C 12,2 C 90 % 992,1 hPa 0,0 l/m 2 min 2 min 97 W/m 12,9 km/h (3 Bft) 93,62 %
02.08.2023 20:02 17,7 C 16,7 C 12,8 C 91 % 992,0 hPa 0,0 l/m 2 min 2 min 100 W/m 19,3 km/h (3 Bft) 95,65 %
02.08.2023 20:04 17,7 C 16,7 C 12,2 C 91 % 992,1 hPa 0,0 l/m 2 min 0 min 106 W/m 19,3 km/h (3 Bft) 93,62 %
02.08.2023 20:06 17,7 C 16,7 C 12,8 C 91 % 992,1 hPa 0,0 l/m 2 min 0 min 97 W/m 16,1 km/h (3 Bft) 93,62 %
02.08.2023 20:08 17,7 C 16,7 C 12,2 C 92 % 992,1 hPa 0,0 l/m 2 min 0 min 93 W/m 16,1 km/h (3 Bft) 93,62 %
02.08.2023 20:10 17,8 C 16,7 C 12,8 C 92 % 992,1 hPa 0,0 l/m 2 min 0 min 85 W/m 16,1 km/h (3 Bft) 91,43 %
02.08.2023 20:12 17,7 C 16,7 C 12,2 C 92 % 992,0 hPa 0,0 l/m 0 min 0 min 57 W/m 16,1 km/h (3 Bft) 95,74 %
02.08.2023 20:14 17,7 C 16,7 C 12,8 C 92 % 992,1 hPa 0,0 l/m 0 min 0 min 39 W/m 19,3 km/h (3 Bft) 95,74 %
02.08.2023 20:16 17,7 C 16,7 C 12,2 C 92 % 992,1 hPa 0,0 l/m 0 min 0 min 33 W/m 12,9 km/h (3 Bft) 93,62 %
02.08.2023 20:18 17,7 C 16,7 C 12,8 C 92 % 992,0 hPa 0,0 l/m 0 min 0 min 29 W/m 6,4 km/h (2 Bft) 95,74 %
02.08.2023 20:20 17,7 C 16,7 C 12,2 C 92 % 992,0 hPa 0,0 l/m 0 min 0 min 28 W/m 19,3 km/h (3 Bft) 91,30 %
02.08.2023 20:22 17,7 C 16,7 C 12,2 C 92 % 992,0 hPa 0,0 l/m 0 min 0 min 32 W/m 12,9 km/h (3 Bft) 91,49 %
02.08.2023 20:24 17,7 C 16,7 C 12,2 C 92 % 992,1 hPa 0,0 l/m 0 min 0 min 26 W/m 12,9 km/h (3 Bft) 95,74 %
02.08.2023 20:26 17,7 C 16,7 C 12,2 C 92 % 992,1 hPa 0,0 l/m 0 min 0 min 24 W/m 6,4 km/h (2 Bft) 95,74 %
02.08.2023 20:28 17,7 C 16,7 C 12,2 C 92 % 992,1 hPa 0,0 l/m 0 min 0 min 21 W/m 12,9 km/h (3 Bft) 91,49 %
02.08.2023 20:30 17,6 C 16,7 C 12,2 C 92 % 992,1 hPa 0,0 l/m 0 min 0 min 19 W/m 19,3 km/h (3 Bft) 95,74 %
02.08.2023 20:32 17,6 C 16,7 C 12,2 C 92 % 992,0 hPa 0,0 l/m 0 min 0 min 21 W/m 12,9 km/h (3 Bft) 95,65 %
02.08.2023 20:34 17,6 C 16,7 C 12,2 C 92 % 992,0 hPa 0,0 l/m 0 min 0 min 21 W/m 12,9 km/h (3 Bft) 95,74 %
02.08.2023 20:36 17,6 C 16,7 C 12,2 C 92 % 992,0 hPa 0,0 l/m 0 min 0 min 20 W/m 12,9 km/h (3 Bft) 95,74 %
02.08.2023 20:38 17,5 C 16,7 C 12,2 C 91 % 992,1 hPa 0,0 l/m 0 min 0 min 16 W/m 12,9 km/h (3 Bft) 93,62 %
02.08.2023 20:40 17,5 C 16,7 C 12,2 C 91 % 992,1 hPa 0,0 l/m 0 min 0 min 12 W/m 6,4 km/h (2 Bft) 94,23 %
02.08.2023 20:42 17,5 C 16,7 C 12,2 C 91 % 992,1 hPa 0,0 l/m 0 min 0 min 11 W/m 12,9 km/h (3 Bft) 95,74 %
02.08.2023 20:44 17,5 C 16,7 C 12,2 C 92 % 992,0 hPa 0,0 l/m 0 min 0 min 10 W/m 6,4 km/h (2 Bft) 95,74 %
02.08.2023 20:46 17,5 C 16,7 C 12,2 C 92 % 992,0 hPa 0,0 l/m 0 min 0 min 11 W/m 16,1 km/h (3 Bft) 93,62 %
02.08.2023 20:48 17,6 C 16,7 C 12,2 C 92 % 992,0 hPa 0,0 l/m 0 min 0 min 11 W/m 16,1 km/h (3 Bft) 95,65 %
02.08.2023 20:50 17,6 C 16,7 C 12,2 C 92 % 992,0 hPa 0,0 l/m 0 min 0 min 10 W/m 9,7 km/h (2 Bft) 97,87 %
02.08.2023 20:52 17,6 C 16,7 C 12,2 C 92 % 992,1 hPa 0,0 l/m 0 min 0 min 8 W/m 6,4 km/h (2 Bft) 100,00 %
02.08.2023 20:54 17,6 C 16,7 C 12,2 C 92 % 992,1 hPa 0,0 l/m 0 min 0 min 7 W/m 6,4 km/h (2 Bft) 97,87 %
02.08.2023 20:56 17,6 C 16,7 C 12,2 C 92 % 992,1 hPa 0,0 l/m 0 min 0 min 6 W/m 6,4 km/h (2 Bft) 100,00 %
02.08.2023 20:58 17,6 C 16,7 C 12,2 C 92 % 992,0 hPa 0,0 l/m 0 min 0 min 5 W/m 6,4 km/h (2 Bft) 100,00 %
02.08.2023 21:00 17,6 C 16,7 C 12,2 C 92 % 992,1 hPa 0,0 l/m 0 min 0 min 5 W/m 12,9 km/h (3 Bft) 100,00 %
02.08.2023 21:02 17,6 C 16,7 C 12,2 C 92 % 992,1 hPa 0,0 l/m 0 min 0 min 5 W/m 9,7 km/h (2 Bft) 97,87 %
02.08.2023 21:04 17,6 C 16,7 C 12,2 C 92 % 992,1 hPa 0,0 l/m 0 min 0 min 5 W/m 12,9 km/h (3 Bft) 100,00 %
02.08.2023 21:06 17,6 C 16,7 C 12,2 C 92 % 992,1 hPa 0,0 l/m 0 min 0 min 0 W/m 6,4 km/h (2 Bft) 100,00 %
02.08.2023 21:08 17,6 C 16,7 C 12,2 C 92 % 992,1 hPa 0,0 l/m 0 min 2 min 0 W/m 6,4 km/h (2 Bft) 100,00 %
02.08.2023 21:10 17,6 C 16,7 C 12,2 C 92 % 992,2 hPa 0,0 l/m 0 min 0 min 0 W/m 16,1 km/h (3 Bft) 100,00 %
02.08.2023 21:12 17,6 C 16,7 C 12,2 C 92 % 992,2 hPa 0,0 l/m 0 min 2 min 0 W/m 9,7 km/h (2 Bft) 100,00 %
02.08.2023 21:14 17,6 C 16,7 C 12,2 C 92 % 992,2 hPa 0,0 l/m 0 min 2 min 0 W/m 6,4 km/h (2 Bft) 100,00 %
02.08.2023 21:16 17,6 C 16,7 C 12,2 C 92 % 992,2 hPa 0,0 l/m 0 min 2 min 0 W/m 6,4 km/h (2 Bft) 95,74 %
02.08.2023 21:18 17,6 C 16,7 C 12,2 C 92 % 992,2 hPa 0,0 l/m 0 min 2 min 0 W/m 9,7 km/h (2 Bft) 100,00 %
02.08.2023 21:20 17,5 C 16,7 C 12,2 C 92 % 992,3 hPa 0,0 l/m 0 min 0 min 0 W/m 9,7 km/h (2 Bft) 97,87 %
02.08.2023 21:22 17,5 C 16,7 C 12,2 C 92 % 992,3 hPa 0,0 l/m 0 min 0 min 0 W/m 12,9 km/h (3 Bft) 95,65 %
02.08.2023 21:24 17,5 C 16,7 C 12,2 C 92 % 992,3 hPa 0,0 l/m 0 min 0 min 0 W/m 6,4 km/h (2 Bft) 97,87 %
02.08.2023 21:26 17,5 C 16,7 C 12,2 C 92 % 992,3 hPa 0,0 l/m 0 min 0 min 0 W/m 9,7 km/h (2 Bft) 97,87 %
02.08.2023 21:28 17,5 C 16,7 C 12,2 C 92 % 992,3 hPa 0,0 l/m 0 min 0 min 0 W/m 3,2 km/h (1 Bft) 100,00 %
02.08.2023 21:30 17,5 C 16,7 C 12,2 C 92 % 992,3 hPa 0,0 l/m 0 min 0 min 0 W/m 0,0 km/h (0 Bft) 97,87 %
02.08.2023 21:32 17,5 C 16,7 C 12,2 C 92 % 992,4 hPa 0,0 l/m 0 min 0 min 0 W/m 3,2 km/h (1 Bft) 95,74 %
02.08.2023 21:34 17,5 C 16,7 C 12,2 C 92 % 992,3 hPa 0,0 l/m 0 min 0 min 0 W/m 12,9 km/h (3 Bft) 97,87 %
02.08.2023 21:36 17,5 C 16,7 C 12,2 C 92 % 992,3 hPa 0,0 l/m 0 min 2 min 0 W/m 6,4 km/h (2 Bft) 97,83 %
02.08.2023 21:38 17,5 C 16,7 C 12,2 C 92 % 992,4 hPa 0,0 l/m 0 min 0 min 0 W/m 12,9 km/h (3 Bft) 97,92 %
02.08.2023 21:40 17,5 C 16,7 C 12,2 C 92 % 992,3 hPa 0,0 l/m 0 min 0 min 0 W/m 12,9 km/h (3 Bft) 97,87 %
02.08.2023 21:42 17,5 C 16,7 C 12,2 C 92 % 992,3 hPa 0,0 l/m 0 min 0 min 0 W/m 22,5 km/h (4 Bft) 97,87 %
02.08.2023 21:44 17,5 C 16,7 C 12,2 C 92 % 992,4 hPa 0,0 l/m 0 min 0 min 0 W/m 6,4 km/h (2 Bft) 97,87 %
02.08.2023 21:46 17,5 C 16,7 C 12,2 C 92 % 992,4 hPa 0,0 l/m 0 min 0 min 0 W/m 12,9 km/h (3 Bft) 97,87 %
02.08.2023 21:48 17,5 C 16,7 C 12,2 C 92 % 992,4 hPa 0,0 l/m 0 min 0 min 0 W/m 9,7 km/h (2 Bft) 95,74 %
02.08.2023 21:50 17,5 C 16,7 C 12,2 C 92 % 992,5 hPa 0,0 l/m 0 min 0 min 0 W/m 16,1 km/h (3 Bft) 97,87 %
02.08.2023 21:52 17,6 C 16,7 C 12,2 C 92 % 992,4 hPa 0,0 l/m 0 min 2 min 0 W/m 12,9 km/h (3 Bft) 97,83 %
02.08.2023 21:54 17,6 C 16,7 C 12,2 C 92 % 992,5 hPa 0,0 l/m 0 min 0 min 0 W/m 9,7 km/h (2 Bft) 97,87 %
02.08.2023 21:56 17,6 C 16,7 C 12,8 C 92 % 992,3 hPa 0,0 l/m 0 min 0 min 0 W/m 6,4 km/h (2 Bft) 97,87 %
02.08.2023 21:58 17,6 C 16,7 C 12,8 C 92 % 992,3 hPa 0,0 l/m 0 min 0 min 0 W/m 3,2 km/h (1 Bft) 97,87 %
02.08.2023 22:00 17,6 C 16,7 C 12,2 C 92 % 992,3 hPa 0,0 l/m 0 min 0 min 0 W/m 9,7 km/h (2 Bft) 97,87 %
02.08.2023 22:02 17,6 C 16,7 C 12,2 C 92 % 992,3 hPa 0,0 l/m 0 min 0 min 0 W/m 16,1 km/h (3 Bft) 97,87 %
02.08.2023 22:04 17,6 C 16,7 C 12,2 C 92 % 992,4 hPa 0,0 l/m 0 min 0 min 0 W/m 16,1 km/h (3 Bft) 100,00 %
02.08.2023 22:06 17,6 C 16,7 C 12,2 C 92 % 992,3 hPa 0,0 l/m 0 min 2 min 0 W/m 22,5 km/h (4 Bft) 100,00 %
02.08.2023 22:08 17,6 C 16,7 C 12,2 C 92 % 992,3 hPa 0,2 l/m 0 min 2 min 0 W/m 16,1 km/h (3 Bft) 100,00 %
02.08.2023 22:10 17,6 C 16,7 C 12,2 C 91 % 992,4 hPa 0,0 l/m 0 min 2 min 0 W/m 12,9 km/h (3 Bft) 97,14 %
02.08.2023 22:12 17,6 C 16,7 C 12,2 C 91 % 992,4 hPa 0,0 l/m 0 min 2 min 0 W/m 12,9 km/h (3 Bft) 100,00 %
02.08.2023 22:14 17,6 C 16,7 C 12,2 C 91 % 992,4 hPa 0,0 l/m 0 min 0 min 0 W/m 29,0 km/h (5 Bft) 100,00 %
02.08.2023 22:16 17,6 C 16,7 C 12,2 C 91 % 992,3 hPa 0,0 l/m 0 min 0 min 0 W/m 9,7 km/h (2 Bft) 100,00 %
02.08.2023 22:18 17,6 C 16,7 C 12,2 C 91 % 992,3 hPa 0,0 l/m 0 min 0 min 0 W/m 9,7 km/h (2 Bft) 95,74 %
02.08.2023 22:20 17,6 C 16,7 C 12,2 C 91 % 992,3 hPa 0,0 l/m 0 min 0 min 0 W/m 16,1 km/h (3 Bft) 97,87 %
02.08.2023 22:22 17,6 C 16,7 C 12,2 C 91 % 992,4 hPa 0,0 l/m 0 min 0 min 0 W/m 16,1 km/h (3 Bft) 95,65 %
02.08.2023 22:24 17,6 C 16,7 C 12,2 C 91 % 992,3 hPa 0,0 l/m 0 min 2 min 0 W/m 22,5 km/h (4 Bft) 100,00 %
02.08.2023 22:26 17,6 C 16,7 C 12,2 C 91 % 992,3 hPa 0,0 l/m 0 min 2 min 0 W/m 16,1 km/h (3 Bft) 100,00 %
02.08.2023 22:28 17,6 C 16,7 C 12,2 C 91 % 992,3 hPa 0,0 l/m 0 min 0 min 0 W/m 3,2 km/h (1 Bft) 95,74 %
02.08.2023 22:30 17,6 C 16,7 C 12,2 C 91 % 992,3 hPa 0,0 l/m 0 min 0 min 0 W/m 12,9 km/h (3 Bft) 100,00 %
02.08.2023 22:32 17,6 C 16,7 C 12,2 C 91 % 992,4 hPa 0,0 l/m 0 min 0 min 0 W/m 9,7 km/h (2 Bft) 100,00 %
02.08.2023 22:34 17,6 C 16,7 C 12,2 C 91 % 992,4 hPa 0,0 l/m 0 min 0 min 0 W/m 32,2 km/h (5 Bft) 97,83 %
02.08.2023 22:36 17,6 C 16,7 C 12,2 C 90 % 992,4 hPa 0,0 l/m 0 min 0 min 0 W/m 16,1 km/h (3 Bft) 97,87 %
02.08.2023 22:38 17,6 C 16,7 C 12,2 C 90 % 992,3 hPa 0,0 l/m 0 min 0 min 0 W/m 19,3 km/h (3 Bft) 97,87 %
02.08.2023 22:40 17,6 C 16,7 C 12,2 C 91 % 992,3 hPa 0,0 l/m 0 min 0 min 0 W/m 9,7 km/h (2 Bft) 95,74 %
02.08.2023 22:42 17,6 C 16,7 C 12,2 C 90 % 992,3 hPa 0,0 l/m 0 min 0 min 0 W/m 12,9 km/h (3 Bft) 95,74 %
02.08.2023 22:44 17,6 C 16,7 C 12,2 C 90 % 992,3 hPa 0,0 l/m 0 min 0 min 0 W/m 12,9 km/h (3 Bft) 95,74 %
02.08.2023 22:46 17,6 C 16,7 C 12,2 C 90 % 992,3 hPa 0,0 l/m 0 min 0 min 0 W/m 6,4 km/h (2 Bft) 95,74 %
02.08.2023 22:48 17,6 C 16,7 C 12,2 C 90 % 992,3 hPa 0,0 l/m 0 min 0 min 0 W/m 9,7 km/h (2 Bft) 97,83 %
02.08.2023 22:50 17,6 C 16,7 C 12,2 C 90 % 992,3 hPa 0,0 l/m 0 min 0 min 0 W/m 6,4 km/h (2 Bft) 95,74 %
02.08.2023 22:52 17,6 C 16,7 C 12,2 C 90 % 992,3 hPa 0,0 l/m 0 min 0 min 0 W/m 12,9 km/h (3 Bft) 95,74 %
02.08.2023 22:54 17,6 C 16,7 C 12,2 C 90 % 992,3 hPa 0,0 l/m 0 min 2 min 0 W/m 16,1 km/h (3 Bft) 97,87 %
02.08.2023 22:56 17,6 C 16,7 C 12,2 C 90 % 992,3 hPa 0,0 l/m 0 min 0 min 0 W/m 22,5 km/h (4 Bft) 97,87 %
02.08.2023 22:58 17,6 C 16,7 C 11,7 C 90 % 992,3 hPa 0,0 l/m 0 min 2 min 0 W/m 25,7 km/h (4 Bft) 93,62 %
02.08.2023 23:00 17,6 C 16,7 C 11,7 C 90 % 992,4 hPa 0,0 l/m 0 min 2 min 0 W/m 38,6 km/h (5 Bft) 97,87 %
02.08.2023 23:02 17,6 C 16,7 C 11,7 C 89 % 992,3 hPa 0,0 l/m 0 min 0 min 0 W/m 38,6 km/h (5 Bft) 97,83 %
02.08.2023 23:04 17,7 C 16,7 C 11,7 C 89 % 992,3 hPa 0,0 l/m 0 min 0 min 0 W/m 19,3 km/h (3 Bft) 95,83 %
02.08.2023 23:06 17,7 C 16,7 C 11,7 C 89 % 992,4 hPa 0,0 l/m 0 min 0 min 0 W/m 22,5 km/h (4 Bft) 96,67 %
02.08.2023 23:08 17,7 C 16,7 C 11,7 C 89 % 992,3 hPa 0,0 l/m 0 min 0 min 0 W/m 29,0 km/h (5 Bft) 94,29 %
02.08.2023 23:10 17,7 C 16,7 C 11,7 C 89 % 992,3 hPa 0,0 l/m 0 min 0 min 0 W/m 16,1 km/h (3 Bft) 93,62 %
02.08.2023 23:12 17,7 C 16,7 C 11,7 C 89 % 992,3 hPa 0,0 l/m 0 min 0 min 0 W/m 22,5 km/h (4 Bft) 93,62 %
02.08.2023 23:14 17,7 C 16,7 C 11,7 C 89 % 992,4 hPa 0,0 l/m 0 min 0 min 0 W/m 22,5 km/h (4 Bft) 91,30 %
02.08.2023 23:16 17,7 C 16,7 C 11,7 C 89 % 992,3 hPa 0,0 l/m 0 min 0 min 0 W/m 29,0 km/h (5 Bft) 95,74 %
02.08.2023 23:18 17,7 C 16,7 C 11,7 C 89 % 992,3 hPa 0,0 l/m 0 min 0 min 0 W/m 16,1 km/h (3 Bft) 95,74 %
02.08.2023 23:20 17,7 C 16,7 C 11,7 C 89 % 992,3 hPa 0,0 l/m 0 min 2 min 0 W/m 16,1 km/h (3 Bft) 95,74 %
02.08.2023 23:22 17,6 C 16,7 C 11,7 C 89 % 992,2 hPa 0,0 l/m 0 min 2 min 0 W/m 19,3 km/h (3 Bft) 93,62 %
02.08.2023 23:24 17,6 C 16,7 C 11,7 C 89 % 992,2 hPa 0,0 l/m 0 min 2 min 0 W/m 32,2 km/h (5 Bft) 95,74 %
02.08.2023 23:26 17,6 C 16,7 C 11,7 C 89 % 992,3 hPa 0,0 l/m 0 min 2 min 0 W/m 16,1 km/h (3 Bft) 95,74 %
02.08.2023 23:28 17,6 C 16,7 C 11,7 C 89 % 992,4 hPa 0,0 l/m 0 min 2 min 0 W/m 25,7 km/h (4 Bft) 93,48 %
02.08.2023 23:30 17,6 C 16,7 C 11,7 C 89 % 992,3 hPa 0,0 l/m 0 min 2 min 0 W/m 25,7 km/h (4 Bft) 95,74 %
02.08.2023 23:32 17,6 C 16,7 C 11,7 C 89 % 992,3 hPa 0,0 l/m 0 min 2 min 0 W/m 16,1 km/h (3 Bft) 93,62 %
02.08.2023 23:34 17,6 C 15,6 C 11,7 C 90 % 992,4 hPa 0,2 l/m 0 min 2 min 0 W/m 38,6 km/h (5 Bft) 91,49 %
02.08.2023 23:36 17,5 C 15,6 C 11,7 C 90 % 992,4 hPa 0,2 l/m 0 min 2 min 0 W/m 29,0 km/h (5 Bft) 95,74 %
02.08.2023 23:38 17,5 C 15,6 C 11,7 C 90 % 992,4 hPa 0,2 l/m 0 min 2 min 0 W/m 25,7 km/h (4 Bft) 91,49 %
02.08.2023 23:40 17,4 C 15,0 C 11,7 C 90 % 992,3 hPa 0,0 l/m 0 min 2 min 0 W/m 19,3 km/h (3 Bft) 93,62 %
02.08.2023 23:42 17,3 C 15,0 C 11,7 C 91 % 992,3 hPa 0,2 l/m 0 min 2 min 0 W/m 29,0 km/h (5 Bft) 95,65 %
02.08.2023 23:44 17,3 C 15,0 C 11,7 C 91 % 992,3 hPa 0,2 l/m 0 min 2 min 0 W/m 16,1 km/h (3 Bft) 95,74 %
02.08.2023 23:46 17,2 C 15,0 C 11,7 C 91 % 992,2 hPa 0,2 l/m 0 min 2 min 0 W/m 32,2 km/h (5 Bft) 91,49 %
02.08.2023 23:48 17,1 C 15,0 C 11,7 C 92 % 992,3 hPa 0,0 l/m 0 min 2 min 0 W/m 22,5 km/h (4 Bft) 95,74 %
02.08.2023 23:50 17,1 C 15,0 C 11,7 C 92 % 992,2 hPa 0,2 l/m 0 min 2 min 0 W/m 22,5 km/h (4 Bft) 95,74 %
02.08.2023 23:52 17,0 C 15,0 C 11,7 C 92 % 992,1 hPa 0,0 l/m 0 min 0 min 0 W/m 12,9 km/h (3 Bft) 95,74 %
02.08.2023 23:54 17,0 C 15,0 C 11,7 C 92 % 992,2 hPa 0,0 l/m 0 min 2 min 0 W/m 22,5 km/h (4 Bft) 97,83 %
02.08.2023 23:56 16,9 C 15,0 C 11,7 C 93 % 992,1 hPa 0,0 l/m 0 min 2 min 0 W/m 22,5 km/h (4 Bft) 95,74 %
02.08.2023 23:58 16,9 C 15,0 C 11,7 C 93 % 992,1 hPa 0,0 l/m 0 min 2 min 0 W/m 22,5 km/h (4 Bft) 68,09 %
_ Min-Zeit 03:10 02:46 06:40 18:54 14:14 - - - - 00:00 08:08
Minimum _ 15,5 C 14,4 C 11,1 C 72 % 989,8 hPa - - - - 0,0 km/h (0 Bft) 53,49 %
_ Max-Zeit 17:00 16:54 16:58 10:02 00:00 13:32 18:08 06:20 15:00 14:30 00:50
Maximum _ 23,8 C 27,8 C 18,9 C 99 % 1003,8 hPa 1,0 l/m 4 min 2 min 914 W/m 51,5 km/h
S-SW (7 Bft)
100,00 %
Durchschnitt _ 17,9 C 17,5 C 13,2 C 91 % 995,2 hPa #8,8 l/m #2:18 h #5:00 h 181 W/m 12,9 km/h (3 Bft) 97,31 %
© 2023 W. Hausmann